Time,TemperatureF,DewpointF,PressureIn,WindDirection,WindDirectionDegrees,WindSpeedMPH,WindSpeedGustMPH,Humidity,HourlyPrecipIn,Conditions,Clouds,dailyrainin,SoftwareType,DateUTC
2013-02-05 00:01:00,47.7,42.5,30.12,South,177,3.5,3.5,82,0.00,SCT,,0.00,WeatherDisplay:10.37,2013-02-05 08:01:00,
2013-02-05 00:02:00,47.7,42.5,30.12,SSW,199,6.9,6.9,82,0.00,SCT,,0.00,WeatherDisplay:10.37,2013-02-05 08:02:00,
2013-02-05 00:04:00,47.7,42.8,30.13,SSW,197,4.0,4.0,83,0.00,SCT,,0.00,WeatherDisplay:10.37,2013-02-05 08:04:00,
2013-02-05 00:07:00,47.7,42.5,30.12,SSW,208,3.5,3.5,82,0.00,SCT,,0.00,WeatherDisplay:10.37,2013-02-05 08:07:00,
2013-02-05 00:08:00,47.7,42.5,30.12,SW,222,4.6,4.6,82,0.00,SCT,,0.00,WeatherDisplay:10.37,2013-02-05 08:08:00,
2013-02-05 00:09:00,47.7,42.5,30.13,SW,225,4.6,4.6,82,0.00,SCT,,0.00,WeatherDisplay:10.37,2013-02-05 08:09:00,
2013-02-05 00:10:00,47.7,42.5,30.12,SSW,208,0.0,6.0,82,0.00,SCT,,0.00,WeatherDisplay:10.37,2013-02-05 08:10:00,
2013-02-05 00:12:00,47.6,42.4,30.13,WSW,258,3.5,3.5,82,0.00,SCT,,0.00,WeatherDisplay:10.37,2013-02-05 08:12:00,
2013-02-05 00:13:00,47.6,42.4,30.13,SSW,199,10.4,10.4,82,0.00,SCT,,0.00,WeatherDisplay:10.37,2013-02-05 08:13:00,
2013-02-05 00:15:00,47.6,42.4,30.12,SW,216,3.0,10.0,82,0.00,SCT,,0.00,WeatherDisplay:10.37,2013-02-05 08:15:00,
2013-02-05 00:18:00,47.6,42.4,30.13,West,266,3.5,3.5,82,0.00,SCT,,0.00,WeatherDisplay:10.37,2013-02-05 08:18:00,
2013-02-05 00:19:00,47.6,42.4,30.13,SSW,208,3.5,3.5,82,0.00,SCT,,0.00,WeatherDisplay:10.37,2013-02-05 08:19:00,
2013-02-05 00:20:00,47.6,42.4,30.13,WSW,249,3.5,3.5,82,0.00,SCT,,0.00,WeatherDisplay:10.37,2013-02-05 08:20:00,
2013-02-05 00:24:00,47.6,42.4,30.13,South,188,6.9,6.9,82,0.00,SCT,,0.00,WeatherDisplay:10.37,2013-02-05 08:24:00,
2013-02-05 00:25:00,47.6,42.4,30.12,South,186,3.5,3.5,82,0.00,SCT,,0.00,WeatherDisplay:10.37,2013-02-05 08:25:00,
2013-02-05 00:26:00,47.6,42.4,30.13,West,263,3.5,3.5,82,0.00,SCT,,0.00,WeatherDisplay:10.37,2013-02-05 08:26:00,
2013-02-05 00:27:00,47.6,42.4,30.13,SW,228,3.5,3.5,82,0.00,SCT,,0.00,WeatherDisplay:10.37,2013-02-05 08:27:00,
2013-02-05 00:29:00,47.6,42.4,30.12,SW,214,8.1,8.1,82,0.00,SCT,,0.00,WeatherDisplay:10.37,2013-02-05 08:29:00,
2013-02-05 00:31:00,47.5,42.3,30.12,SW,223,2.3,2.3,82,0.00,SCT,,0.00,WeatherDisplay:10.37,2013-02-05 08:31:00,
2013-02-05 00:32:00,47.5,42.3,30.12,SSW,206,2.3,2.3,82,0.00,SCT,,0.00,WeatherDisplay:10.37,2013-02-05 08:32:00,
2013-02-05 00:35:00,47.5,42.3,30.12,SE,138,3.5,3.5,82,0.00,SCT,,0.00,WeatherDisplay:10.37,2013-02-05 08:35:00,
2013-02-05 00:36:00,47.5,42.0,30.12,SSW,210,7.0,7.0,81,0.00,SCT,,0.00,WeatherDisplay:10.37,2013-02-05 08:36:00,
2013-02-05 00:37:00,47.5,42.0,30.12,SSW,211,6.9,6.9,81,0.00,SCT,,0.00,WeatherDisplay:10.37,2013-02-05 08:37:00,
2013-02-05 00:42:00,47.5,42.0,30.12,SSW,210,2.3,2.3,81,0.00,SCT,,0.00,WeatherDisplay:10.37,2013-02-05 08:42:00,
2013-02-05 00:43:00,47.5,42.0,30.12,SW,214,1.0,1.0,81,0.00,SCT,,0.00,WeatherDisplay:10.37,2013-02-05 08:43:00,
2013-02-05 00:47:00,47.4,41.9,30.12,SW,223,1.1,1.1,81,0.00,SCT,,0.00,WeatherDisplay:10.37,2013-02-05 08:47:00,
2013-02-05 00:48:00,47.4,41.9,30.12,SW,223,1.1,1.1,81,0.00,SCT,,0.00,WeatherDisplay:10.37,2013-02-05 08:48:00,
2013-02-05 00:49:00,47.4,41.9,30.12,SSW,195,2.0,2.0,81,0.00,SCT,,0.00,WeatherDisplay:10.37,2013-02-05 08:49:00,
2013-02-05 00:53:00,47.4,41.9,30.11,South,181,3.5,3.5,81,0.00,SCT,,0.00,WeatherDisplay:10.37,2013-02-05 08:53:00,
2013-02-05 00:54:00,47.4,41.9,30.11,SSW,197,3.0,3.0,81,0.00,SCT,,0.00,WeatherDisplay:10.37,2013-02-05 08:54:00,
2013-02-05 00:58:00,47.4,41.5,30.11,SW,217,2.3,2.3,80,0.00,SCT,,0.00,WeatherDisplay:10.37,2013-02-05 08:58:00,
2013-02-05 01:00:00,47.4,41.5,30.11,SSE,161,3.5,3.5,80,0.00,SCT,,0.00,WeatherDisplay:10.37,2013-02-05 09:00:00,
2013-02-05 01:03:00,47.4,41.5,30.11,SSE,155,0.0,0.2,80,0.00,SCT,,0.00,WeatherDisplay:10.37,2013-02-05 09:03:00,
2013-02-05 01:04:00,47.4,41.5,30.11,SSE,155,1.0,1.0,80,0.00,SCT,,0.00,WeatherDisplay:10.37,2013-02-05 09:04:00,
2013-02-05 01:05:00,47.4,41.5,30.11,SSE,155,2.3,2.3,80,0.00,SCT,,0.00,WeatherDisplay:10.37,2013-02-05 09:05:00,
2013-02-05 01:06:00,47.4,41.5,30.11,SSE,155,2.3,2.3,80,0.00,SCT,,0.00,WeatherDisplay:10.37,2013-02-05 09:06:00,
2013-02-05 01:08:00,47.4,41.5,30.11,SSE,155,0.0,0.1,80,0.00,SCT,,0.00,WeatherDisplay:10.37,2013-02-05 09:08:00,
2013-02-05 01:10:00,47.4,41.5,30.11,SSE,155,1.1,0.0,80,0.00,SCT,,0.00,WeatherDisplay:10.37,2013-02-05 09:10:00,
2013-02-05 01:13:00,47.4,41.5,30.11,SSW,198,2.3,2.3,80,0.00,SCT,,0.00,WeatherDisplay:10.37,2013-02-05 09:13:00,
2013-02-05 01:15:00,47.4,41.5,30.12,SSW,197,1.1,1.1,80,0.00,SCT,,0.00,WeatherDisplay:10.37,2013-02-05 09:15:00,
2013-02-05 01:18:00,47.5,41.6,30.12,South,179,2.3,2.3,80,0.00,SCT,,0.00,WeatherDisplay:10.37,2013-02-05 09:18:00,
2013-02-05 01:19:00,47.5,41.6,30.12,South,171,2.3,2.3,80,0.00,SCT,,0.00,WeatherDisplay:10.37,2013-02-05 09:19:00,
2013-02-05 01:20:00,47.5,41.6,30.11,SSW,204,4.6,4.6,80,0.00,SCT,,0.00,WeatherDisplay:10.37,2013-02-05 09:20:00,
2013-02-05 01:23:00,47.5,41.6,30.11,SSW,197,2.3,2.3,80,0.00,SCT,,0.00,WeatherDisplay:10.37,2013-02-05 09:23:00,
2013-02-05 01:24:00,47.4,41.5,30.11,SSW,197,2.3,2.3,80,0.00,SCT,,0.00,WeatherDisplay:10.37,2013-02-05 09:24:00,
2013-02-05 01:25:00,47.5,41.6,30.11,SSW,197,2.3,2.3,80,0.00,SCT,,0.00,WeatherDisplay:10.37,2013-02-05 09:25:00,
2013-02-05 01:26:00,47.4,41.5,30.11,SSW,197,2.3,2.3,80,0.00,SCT,,0.00,WeatherDisplay:10.37,2013-02-05 09:26:00,
2013-02-05 01:29:00,47.4,41.5,30.12,SSW,197,2.0,2.0,80,0.00,SCT,,0.00,WeatherDisplay:10.37,2013-02-05 09:29:00,
2013-02-05 01:30:00,47.4,41.2,30.12,South,182,2.3,2.3,79,0.00,SCT,,0.00,WeatherDisplay:10.37,2013-02-05 09:30:00,
2013-02-05 01:31:00,47.4,41.5,30.12,South,182,3.5,3.5,80,0.00,SCT,,0.00,WeatherDisplay:10.37,2013-02-05 09:31:00,
2013-02-05 01:34:00,47.4,41.5,30.12,SSW,201,3.5,3.5,80,0.00,SCT,,0.00,WeatherDisplay:10.37,2013-02-05 09:34:00,
2013-02-05 01:35:00,47.4,41.5,30.12,SSW,210,3.5,3.5,80,0.00,SCT,,0.00,WeatherDisplay:10.37,2013-02-05 09:35:00,
2013-02-05 01:36:00,47.3,41.1,30.11,SSW,209,3.5,3.5,79,0.00,SCT,,0.00,WeatherDisplay:10.37,2013-02-05 09:36:00,
2013-02-05 01:37:00,47.3,41.1,30.11,SSE,147,2.0,2.0,79,0.00,SCT,,0.00,WeatherDisplay:10.37,2013-02-05 09:37:00,
2013-02-05 01:39:00,47.3,41.4,30.11,SW,221,2.3,2.3,80,0.00,SCT,,0.00,WeatherDisplay:10.37,2013-02-05 09:39:00,
2013-02-05 01:40:00,47.3,41.1,30.11,South,188,3.5,3.5,79,0.00,SCT,,0.00,WeatherDisplay:10.37,2013-02-05 09:40:00,
2013-02-05 01:41:00,47.3,41.1,30.11,SW,215,3.5,3.5,79,0.00,SCT,,0.00,WeatherDisplay:10.37,2013-02-05 09:41:00,
2013-02-05 01:42:00,47.3,41.1,30.11,SW,235,3.5,3.5,79,0.00,SCT,,0.00,WeatherDisplay:10.37,2013-02-05 09:42:00,
2013-02-05 01:44:00,47.3,41.1,30.11,SSW,199,2.3,2.3,79,0.00,SCT,,0.00,WeatherDisplay:10.37,2013-02-05 09:44:00,
2013-02-05 01:45:00,47.2,41.0,30.11,SSW,199,1.1,1.1,79,0.00,SCT,,0.00,WeatherDisplay:10.37,2013-02-05 09:45:00,
2013-02-05 01:47:00,47.2,41.0,30.11,SSW,199,1.1,1.1,79,0.00,SCT,,0.00,WeatherDisplay:10.37,2013-02-05 09:47:00,
2013-02-05 01:48:00,47.2,41.0,30.11,South,174,3.5,3.5,79,0.00,SCT,,0.00,WeatherDisplay:10.37,2013-02-05 09:48:00,
2013-02-05 01:50:00,47.2,41.0,30.11,SSW,198,4.6,4.6,79,0.00,SCT,,0.00,WeatherDisplay:10.37,2013-02-05 09:50:00,
2013-02-05 01:52:00,47.2,41.0,30.11,SSW,198,4.6,4.6,79,0.00,SCT,,0.00,WeatherDisplay:10.37,2013-02-05 09:52:00,
2013-02-05 01:53:00,47.2,41.0,30.11,SSW,193,2.0,2.0,79,0.00,SCT,,0.00,WeatherDisplay:10.37,2013-02-05 09:53:00,
2013-02-05 01:54:00,47.2,41.0,30.11,SSW,195,3.5,3.5,79,0.00,SCT,,0.00,WeatherDisplay:10.37,2013-02-05 09:54:00,
2013-02-05 01:55:00,47.2,41.0,30.11,SSE,161,5.0,5.0,79,0.00,SCT,,0.00,WeatherDisplay:10.37,2013-02-05 09:55:00,
2013-02-05 01:57:00,47.1,40.9,30.11,South,178,5.8,5.8,79,0.00,SCT,,0.00,WeatherDisplay:10.37,2013-02-05 09:57:00,
2013-02-05 01:58:00,47.1,40.9,30.11,WSW,250,3.5,3.5,79,0.00,SCT,,0.00,WeatherDisplay:10.37,2013-02-05 09:58:00,
2013-02-05 01:59:00,47.1,40.9,30.11,SSW,202,3.5,3.5,79,0.00,SCT,,0.00,WeatherDisplay:10.37,2013-02-05 09:59:00,
2013-02-05 02:00:00,47.0,41.1,30.12,SSW,202,3.5,3.5,80,0.00,SCT,,0.00,WeatherDisplay:10.37,2013-02-05 10:00:00,
2013-02-05 02:03:00,47.0,41.1,30.11,SSW,204,3.5,3.5,80,0.00,SCT,,0.00,WeatherDisplay:10.37,2013-02-05 10:03:00,
2013-02-05 02:04:00,47.0,40.8,30.12,SSW,201,4.6,4.6,79,0.00,SCT,,0.00,WeatherDisplay:10.37,2013-02-05 10:04:00,
2013-02-05 02:05:00,47.0,41.1,30.12,SW,217,3.5,3.5,80,0.00,SCT,,0.00,WeatherDisplay:10.37,2013-02-05 10:05:00,
2013-02-05 02:09:00,46.9,41.1,30.12,SW,220,2.3,2.3,80,0.00,SCT,,0.00,WeatherDisplay:10.37,2013-02-05 10:09:00,
2013-02-05 02:10:00,47.0,41.1,30.12,SW,220,1.1,1.1,80,0.00,SCT,,0.00,WeatherDisplay:10.37,2013-02-05 10:10:00,
2013-02-05 02:12:00,46.9,40.7,30.12,SW,218,4.0,4.0,79,0.00,SCT,,0.00,WeatherDisplay:10.37,2013-02-05 10:12:00,
2013-02-05 02:14:00,46.9,41.1,30.12,SW,230,5.8,5.8,80,0.00,SCT,,0.00,WeatherDisplay:10.37,2013-02-05 10:14:00,
2013-02-05 02:15:00,46.9,40.7,30.12,SW,229,2.3,2.3,79,0.00,SCT,,0.00,WeatherDisplay:10.37,2013-02-05 10:15:00,
2013-02-05 02:16:00,46.9,41.1,30.12,West,260,3.5,3.5,80,0.00,SCT,,0.00,WeatherDisplay:10.37,2013-02-05 10:16:00,
2013-02-05 02:18:00,46.9,41.1,30.11,SW,229,1.1,0.0,80,0.00,SCT,,0.00,WeatherDisplay:10.37,2013-02-05 10:18:00,
2013-02-05 02:19:00,46.9,40.7,30.11,SSW,197,1.1,1.1,79,0.00,SCT,,0.00,WeatherDisplay:10.37,2013-02-05 10:19:00,
2013-02-05 02:21:00,46.9,40.7,30.12,SSW,212,3.5,3.5,79,0.00,SCT,,0.00,WeatherDisplay:10.37,2013-02-05 10:21:00,
2013-02-05 02:22:00,46.9,40.7,30.11,SSW,199,3.5,3.5,79,0.00,SCT,,0.00,WeatherDisplay:10.37,2013-02-05 10:22:00,
2013-02-05 02:24:00,46.9,41.1,30.12,South,182,3.5,3.5,80,0.00,SCT,,0.00,WeatherDisplay:10.37,2013-02-05 10:24:00,
2013-02-05 02:25:00,46.9,40.7,30.12,SSW,210,0.0,4.0,79,0.00,SCT,,0.00,WeatherDisplay:10.37,2013-02-05 10:25:00,
2013-02-05 02:27:00,46.8,40.6,30.11,SW,221,5.8,5.8,79,0.00,SCT,,0.00,WeatherDisplay:10.37,2013-02-05 10:27:00,
2013-02-05 02:28:00,46.8,40.6,30.11,SSW,212,3.5,3.5,79,0.00,SCT,,0.00,WeatherDisplay:10.37,2013-02-05 10:28:00,
2013-02-05 02:29:00,46.8,40.6,30.11,WSW,257,3.5,3.5,79,0.00,SCT,,0.00,WeatherDisplay:10.37,2013-02-05 10:29:00,
2013-02-05 02:30:00,46.8,40.6,30.11,SE,145,3.5,3.5,79,0.00,SCT,,0.00,WeatherDisplay:10.37,2013-02-05 10:30:00,
2013-02-05 02:34:00,46.8,40.6,30.11,SSW,192,6.9,0.0,79,0.00,SCT,,0.00,WeatherDisplay:10.37,2013-02-05 10:34:00,
2013-02-05 02:35:00,46.8,40.6,30.11,South,174,1.1,1.1,79,0.00,SCT,,0.00,WeatherDisplay:10.37,2013-02-05 10:35:00,
2013-02-05 02:37:00,46.8,40.6,30.11,South,190,3.5,3.5,79,0.00,SCT,,0.00,WeatherDisplay:10.37,2013-02-05 10:37:00,
2013-02-05 02:39:00,46.8,40.6,30.11,SSW,202,2.3,2.3,79,0.00,SCT,,0.00,WeatherDisplay:10.37,2013-02-05 10:39:00,
2013-02-05 02:40:00,46.8,40.6,30.11,SSW,202,1.1,1.1,79,0.00,SCT,,0.00,WeatherDisplay:10.37,2013-02-05 10:40:00,
2013-02-05 02:41:00,46.8,40.6,30.11,SSW,202,1.1,0.0,79,0.00,SCT,,0.00,WeatherDisplay:10.37,2013-02-05 10:41:00,
2013-02-05 02:45:00,46.8,40.6,30.11,SSW,196,4.6,4.6,79,0.00,SCT,,0.00,WeatherDisplay:10.37,2013-02-05 10:45:00,
2013-02-05 02:46:00,46.8,40.6,30.11,West,274,3.5,3.5,79,0.00,SCT,,0.00,WeatherDisplay:10.37,2013-02-05 10:46:00,
2013-02-05 02:50:00,46.8,40.6,30.11,SSW,212,4.6,4.6,79,0.00,SCT,,0.00,WeatherDisplay:10.37,2013-02-05 10:50:00,
2013-02-05 02:52:00,46.8,40.6,30.11,SSW,198,7.0,7.0,79,0.00,SCT,,0.00,WeatherDisplay:10.37,2013-02-05 10:52:00,
2013-02-05 02:55:00,46.8,40.6,30.11,SW,217,0.0,7.0,79,0.00,SCT,,0.00,WeatherDisplay:10.37,2013-02-05 10:55:00,
2013-02-05 02:56:00,46.8,40.6,30.11,SW,214,2.0,2.0,79,0.00,SCT,,0.00,WeatherDisplay:10.37,2013-02-05 10:56:00,
2013-02-05 02:57:00,46.8,40.6,30.11,SSW,211,4.6,4.6,79,0.00,SCT,,0.00,WeatherDisplay:10.37,2013-02-05 10:57:00,
2013-02-05 03:00:00,46.8,40.3,30.11,SSW,206,0.0,5.0,78,0.00,SCT,,0.00,WeatherDisplay:10.37,2013-02-05 11:00:00,
2013-02-05 03:01:00,46.8,40.6,30.11,SSW,196,1.0,0.0,79,0.00,SCT,,0.00,WeatherDisplay:10.37,2013-02-05 11:01:00,
2013-02-05 03:02:00,46.8,40.6,30.10,SW,214,2.0,2.0,79,0.00,SCT,,0.00,WeatherDisplay:10.37,2013-02-05 11:02:00,
2013-02-05 03:05:00,46.8,40.3,30.11,South,179,0.0,0.0,78,0.00,SCT,,0.00,WeatherDisplay:10.37,2013-02-05 11:05:00,
2013-02-05 03:06:00,46.8,40.3,30.10,South,179,1.1,0.0,78,0.00,SCT,,0.00,WeatherDisplay:10.37,2013-02-05 11:06:00,
2013-02-05 03:07:00,46.8,40.3,30.11,South,179,1.1,1.1,78,0.00,SCT,,0.00,WeatherDisplay:10.37,2013-02-05 11:07:00,
2013-02-05 03:08:00,46.8,40.3,30.11,South,179,1.1,1.1,78,0.00,SCT,,0.00,WeatherDisplay:10.37,2013-02-05 11:08:00,
2013-02-05 03:10:00,46.8,40.6,30.11,South,179,1.1,0.0,79,0.00,SCT,,0.00,WeatherDisplay:10.37,2013-02-05 11:10:00,
2013-02-05 03:12:00,46.8,40.3,30.11,SSW,212,2.3,2.3,78,0.00,SCT,,0.00,WeatherDisplay:10.37,2013-02-05 11:12:00,
2013-02-05 03:14:00,46.8,40.3,30.11,SSW,196,2.3,2.3,78,0.00,SCT,,0.00,WeatherDisplay:10.37,2013-02-05 11:14:00,
2013-02-05 03:15:00,46.8,40.6,30.11,SSW,212,3.5,3.5,79,0.00,SCT,,0.00,WeatherDisplay:10.37,2013-02-05 11:15:00,
2013-02-05 03:17:00,46.8,40.6,30.11,SSW,197,2.3,2.3,79,0.00,SCT,,0.00,WeatherDisplay:10.37,2013-02-05 11:17:00,
2013-02-05 03:19:00,46.8,40.6,30.11,SSW,197,0.0,0.0,79,0.00,SCT,,0.00,WeatherDisplay:10.37,2013-02-05 11:19:00,
2013-02-05 03:20:00,46.8,40.6,30.10,SSW,197,0.0,0.0,79,0.00,SCT,,0.00,WeatherDisplay:10.37,2013-02-05 11:20:00,
2013-02-05 03:23:00,46.8,40.3,30.11,West,259,0.0,0.0,78,0.00,SCT,,0.00,WeatherDisplay:10.37,2013-02-05 11:23:00,
2013-02-05 03:24:00,46.8,40.3,30.11,WSW,258,1.1,1.1,78,0.00,SCT,,0.00,WeatherDisplay:10.37,2013-02-05 11:24:00,
2013-02-05 03:25:00,46.8,40.3,30.11,WSW,258,1.1,0.0,78,0.00,SCT,,0.00,WeatherDisplay:10.37,2013-02-05 11:25:00,
2013-02-05 03:29:00,46.8,40.3,30.10,SSW,195,4.6,4.6,78,0.00,SCT,,0.00,WeatherDisplay:10.37,2013-02-05 11:29:00,
2013-02-05 03:30:00,46.8,40.3,30.10,South,189,4.6,4.6,78,0.00,SCT,,0.00,WeatherDisplay:10.37,2013-02-05 11:30:00,
2013-02-05 03:35:00,46.8,40.3,30.11,West,266,3.5,3.5,78,0.00,SCT,,0.00,WeatherDisplay:10.37,2013-02-05 11:35:00,
2013-02-05 03:37:00,46.8,40.3,30.11,SW,229,2.0,2.0,78,0.00,SCT,,0.00,WeatherDisplay:10.37,2013-02-05 11:37:00,
2013-02-05 03:40:00,46.7,40.2,30.11,West,267,3.5,3.5,78,0.00,SCT,,0.00,WeatherDisplay:10.37,2013-02-05 11:40:00,
2013-02-05 03:43:00,46.7,40.2,30.10,South,185,6.9,6.9,78,0.00,SCT,,0.00,WeatherDisplay:10.37,2013-02-05 11:43:00,
2013-02-05 03:45:00,46.7,40.2,30.10,SSW,192,3.5,3.5,78,0.00,SCT,,0.00,WeatherDisplay:10.37,2013-02-05 11:45:00,
2013-02-05 03:50:00,46.7,40.2,30.11,SE,146,2.3,0.0,78,0.00,SCT,,0.00,WeatherDisplay:10.37,2013-02-05 11:50:00,
2013-02-05 03:51:00,46.7,40.2,30.10,SE,146,0.0,0.0,78,0.00,SCT,,0.00,WeatherDisplay:10.37,2013-02-05 11:51:00,
2013-02-05 03:55:00,46.7,40.2,30.11,SSW,200,1.1,0.0,78,0.00,SCT,,0.00,WeatherDisplay:10.37,2013-02-05 11:55:00,
2013-02-05 03:56:00,46.7,40.2,30.11,SSW,200,1.1,0.0,78,0.00,SCT,,0.00,WeatherDisplay:10.37,2013-02-05 11:56:00,
2013-02-05 04:01:00,46.7,40.2,30.10,SSW,200,1.1,1.1,78,0.00,SCT,,0.00,WeatherDisplay:10.37,2013-02-05 12:01:00,
2013-02-05 04:02:00,46.6,40.1,30.10,SSW,200,1.1,1.1,78,0.00,SCT,,0.00,WeatherDisplay:10.37,2013-02-05 12:02:00,
2013-02-05 04:07:00,46.6,40.1,30.10,SSW,200,0.0,0.0,78,0.00,SCT,,0.00,WeatherDisplay:10.37,2013-02-05 12:07:00,
2013-02-05 04:08:00,46.6,40.1,30.10,SSW,200,2.0,2.0,78,0.00,SCT,,0.00,WeatherDisplay:10.37,2013-02-05 12:08:00,
2013-02-05 04:12:00,46.6,39.8,30.10,SE,126,2.3,2.3,77,0.00,SCT,,0.00,WeatherDisplay:10.37,2013-02-05 12:12:00,
2013-02-05 04:13:00,46.5,40.0,30.10,ESE,115,2.3,2.3,78,0.00,SCT,,0.00,WeatherDisplay:10.37,2013-02-05 12:13:00,
2013-02-05 04:17:00,46.5,39.7,30.10,SSE,162,1.1,1.1,77,0.00,SCT,,0.00,WeatherDisplay:10.37,2013-02-05 12:17:00,
2013-02-05 04:18:00,46.5,40.0,30.10,SSE,162,1.1,1.1,78,0.00,SCT,,0.00,WeatherDisplay:10.37,2013-02-05 12:18:00,
2013-02-05 04:23:00,46.5,39.7,30.10,SSW,200,2.3,2.3,77,0.00,SCT,,0.00,WeatherDisplay:10.37,2013-02-05 12:23:00,
2013-02-05 04:25:00,46.5,39.7,30.10,South,173,2.0,2.0,77,0.00,SCT,,0.00,WeatherDisplay:10.37,2013-02-05 12:25:00,
2013-02-05 04:28:00,46.5,39.7,30.10,SSW,204,2.3,2.3,77,0.00,SCT,,0.00,WeatherDisplay:10.37,2013-02-05 12:28:00,
2013-02-05 04:30:00,46.5,39.7,30.10,South,176,3.5,3.5,77,0.00,SCT,,0.00,WeatherDisplay:10.37,2013-02-05 12:30:00,
2013-02-05 04:31:00,46.5,39.7,30.10,South,169,3.5,3.5,77,0.00,SCT,,0.00,WeatherDisplay:10.37,2013-02-05 12:31:00,
2013-02-05 04:33:00,46.4,39.6,30.10,SW,218,1.1,1.1,77,0.00,SCT,,0.00,WeatherDisplay:10.37,2013-02-05 12:33:00,
2013-02-05 04:34:00,46.4,39.6,30.10,SW,233,1.1,1.1,77,0.00,SCT,,0.00,WeatherDisplay:10.37,2013-02-05 12:34:00,
2013-02-05 04:35:00,46.5,40.0,30.10,SW,235,0.0,0.0,78,0.00,SCT,,0.00,WeatherDisplay:10.37,2013-02-05 12:35:00,
2013-02-05 04:36:00,46.5,39.7,30.10,SW,235,0.0,0.0,77,0.00,SCT,,0.00,WeatherDisplay:10.37,2013-02-05 12:36:00,
2013-02-05 04:39:00,46.5,39.7,30.10,SW,235,0.0,0.0,77,0.00,SCT,,0.00,WeatherDisplay:10.37,2013-02-05 12:39:00,
2013-02-05 04:40:00,46.5,40.0,30.10,SW,235,0.0,0.0,78,0.00,SCT,,0.00,WeatherDisplay:10.37,2013-02-05 12:40:00,
2013-02-05 04:41:00,46.5,40.0,30.10,SSW,209,3.0,3.0,78,0.00,SCT,,0.00,WeatherDisplay:10.37,2013-02-05 12:41:00,
2013-02-05 04:44:00,46.5,39.7,30.10,East,98,3.5,3.5,77,0.00,SCT,,0.00,WeatherDisplay:10.37,2013-02-05 12:44:00,
2013-02-05 04:45:00,46.5,39.7,30.10,East,98,3.5,3.5,77,0.00,SCT,,0.00,WeatherDisplay:10.37,2013-02-05 12:45:00,
2013-02-05 04:46:00,46.5,39.7,30.10,South,174,2.0,2.0,77,0.00,SCT,,0.00,WeatherDisplay:10.37,2013-02-05 12:46:00,
2013-02-05 04:49:00,46.5,39.7,30.10,SSW,197,1.1,0.0,77,0.00,SCT,,0.00,WeatherDisplay:10.37,2013-02-05 12:49:00,
2013-02-05 04:50:00,46.5,39.7,30.10,SSW,197,0.0,0.0,77,0.00,SCT,,0.00,WeatherDisplay:10.37,2013-02-05 12:50:00,
2013-02-05 04:52:00,46.5,39.7,30.10,SSE,157,1.1,1.1,77,0.00,SCT,,0.00,WeatherDisplay:10.37,2013-02-05 12:52:00,
2013-02-05 04:55:00,46.5,39.7,30.10,South,181,5.8,5.8,77,0.00,SCT,,0.00,WeatherDisplay:10.37,2013-02-05 12:55:00,
2013-02-05 04:57:00,46.5,39.7,30.10,South,186,4.6,4.6,77,0.00,SCT,,0.00,WeatherDisplay:10.37,2013-02-05 12:57:00,
2013-02-05 04:58:00,46.5,39.7,30.10,South,184,4.6,4.6,77,0.00,SCT,,0.00,WeatherDisplay:10.37,2013-02-05 12:58:00,
2013-02-05 05:01:00,46.5,39.7,30.10,WSW,237,3.0,3.0,77,0.00,SCT,,0.00,WeatherDisplay:10.37,2013-02-05 13:01:00,
2013-02-05 05:02:00,46.5,39.7,30.10,SW,224,3.5,0.0,77,0.00,SCT,,0.00,WeatherDisplay:10.37,2013-02-05 13:02:00,
2013-02-05 05:03:00,46.5,39.7,30.10,SW,224,0.0,0.0,77,0.00,SCT,,0.00,WeatherDisplay:10.37,2013-02-05 13:03:00,
2013-02-05 05:06:00,46.5,39.7,30.10,SW,224,1.0,1.0,77,0.00,SCT,,0.00,WeatherDisplay:10.37,2013-02-05 13:06:00,
2013-02-05 05:07:00,46.5,39.7,30.10,SW,224,1.1,0.0,77,0.00,SCT,,0.00,WeatherDisplay:10.37,2013-02-05 13:07:00,
2013-02-05 05:10:00,46.5,39.7,30.10,ESE,106,3.5,3.5,77,0.00,SCT,,0.00,WeatherDisplay:10.37,2013-02-05 13:10:00,
2013-02-05 05:11:00,46.5,39.7,30.10,ESE,105,3.5,3.5,77,0.00,SCT,,0.00,WeatherDisplay:10.37,2013-02-05 13:11:00,
2013-02-05 05:12:00,46.5,39.7,30.10,SSE,166,1.1,1.1,77,0.00,SCT,,0.00,WeatherDisplay:10.37,2013-02-05 13:12:00,
2013-02-05 05:14:00,46.4,39.6,30.10,SSE,167,2.3,2.3,77,0.00,SCT,,0.00,WeatherDisplay:10.37,2013-02-05 13:14:00,
2013-02-05 05:15:00,46.4,39.6,30.10,South,169,2.3,2.3,77,0.00,SCT,,0.00,WeatherDisplay:10.37,2013-02-05 13:15:00,
2013-02-05 05:17:00,46.4,39.6,30.10,South,169,1.1,1.1,77,0.00,SCT,,0.00,WeatherDisplay:10.37,2013-02-05 13:17:00,
2013-02-05 05:19:00,46.4,39.2,30.10,South,169,1.0,1.0,76,0.00,SCT,,0.00,WeatherDisplay:10.37,2013-02-05 13:19:00,
2013-02-05 05:20:00,46.4,39.6,30.09,SSW,194,3.5,3.5,77,0.00,SCT,,0.00,WeatherDisplay:10.37,2013-02-05 13:20:00,
2013-02-05 05:21:00,46.4,39.2,30.09,SSW,198,5.0,5.0,76,0.00,SCT,,0.00,WeatherDisplay:10.37,2013-02-05 13:21:00,
2013-02-05 05:22:00,46.3,39.1,30.09,SSW,204,6.9,6.9,76,0.00,SCT,,0.00,WeatherDisplay:10.37,2013-02-05 13:22:00,
2013-02-05 05:24:00,46.3,39.1,30.09,SSW,208,2.3,2.3,76,0.00,SCT,,0.00,WeatherDisplay:10.37,2013-02-05 13:24:00,
2013-02-05 05:26:00,46.3,39.5,30.10,SSW,198,2.3,2.3,77,0.00,SCT,,0.00,WeatherDisplay:10.37,2013-02-05 13:26:00,
2013-02-05 05:27:00,46.3,39.1,30.09,South,175,3.5,3.5,76,0.00,SCT,,0.00,WeatherDisplay:10.37,2013-02-05 13:27:00,
2013-02-05 05:30:00,46.2,39.1,30.09,SE,137,4.0,4.0,76,0.00,SCT,,0.00,WeatherDisplay:10.37,2013-02-05 13:30:00,
2013-02-05 05:32:00,46.2,39.1,30.09,West,268,3.5,3.5,76,0.00,SCT,,0.00,WeatherDisplay:10.37,2013-02-05 13:32:00,
2013-02-05 05:33:00,46.2,39.1,30.09,WSW,237,2.3,0.0,76,0.00,SCT,,0.00,WeatherDisplay:10.37,2013-02-05 13:33:00,
2013-02-05 05:35:00,46.2,39.1,30.09,SSW,197,2.3,2.3,76,0.00,SCT,,0.00,WeatherDisplay:10.37,2013-02-05 13:35:00,
2013-02-05 05:37:00,46.2,39.1,30.09,SSW,197,0.0,0.0,76,0.00,SCT,,0.00,WeatherDisplay:10.37,2013-02-05 13:37:00,
2013-02-05 05:38:00,46.3,39.1,30.09,SSW,205,1.0,1.0,76,0.00,SCT,,0.00,WeatherDisplay:10.37,2013-02-05 13:38:00,
2013-02-05 05:40:00,46.2,39.1,30.10,West,261,3.5,3.5,76,0.00,SCT,,0.00,WeatherDisplay:10.37,2013-02-05 13:40:00,
2013-02-05 05:41:00,46.2,39.1,30.10,WSW,250,2.0,2.0,76,0.00,SCT,,0.00,WeatherDisplay:10.37,2013-02-05 13:41:00,
2013-02-05 05:42:00,46.2,39.1,30.10,SSW,193,3.5,3.5,76,0.00,SCT,,0.00,WeatherDisplay:10.37,2013-02-05 13:42:00,
2013-02-05 05:44:00,46.2,39.1,30.09,SSW,193,0.0,0.0,76,0.00,SCT,,0.00,WeatherDisplay:10.37,2013-02-05 13:44:00,
2013-02-05 05:45:00,46.2,39.1,30.09,SSW,195,2.3,2.3,76,0.00,SCT,,0.00,WeatherDisplay:10.37,2013-02-05 13:45:00,
2013-02-05 05:46:00,46.2,39.1,30.09,SSW,196,3.5,3.5,76,0.00,SCT,,0.00,WeatherDisplay:10.37,2013-02-05 13:46:00,
2013-02-05 05:48:00,46.2,39.1,30.09,SSW,212,3.0,3.0,76,0.00,SCT,,0.00,WeatherDisplay:10.37,2013-02-05 13:48:00,
2013-02-05 05:49:00,46.2,39.1,30.09,SW,230,3.5,3.5,76,0.00,SCT,,0.00,WeatherDisplay:10.37,2013-02-05 13:49:00,
2013-02-05 05:50:00,46.2,39.1,30.09,SSW,208,2.3,2.3,76,0.00,SCT,,0.00,WeatherDisplay:10.37,2013-02-05 13:50:00,
2013-02-05 05:52:00,46.1,39.0,30.09,South,187,2.3,2.3,76,0.00,SCT,,0.00,WeatherDisplay:10.37,2013-02-05 13:52:00,
2013-02-05 05:54:00,46.2,39.1,30.09,South,186,1.1,1.1,76,0.00,SCT,,0.00,WeatherDisplay:10.37,2013-02-05 13:54:00,
2013-02-05 05:55:00,46.2,39.0,30.09,SSW,208,0.0,2.0,76,0.00,SCT,,0.00,WeatherDisplay:10.37,2013-02-05 13:55:00,
2013-02-05 05:56:00,46.2,39.1,30.09,South,187,1.1,0.0,76,0.00,SCT,,0.00,WeatherDisplay:10.37,2013-02-05 13:56:00,
2013-02-05 05:57:00,46.2,39.1,30.09,South,186,0.0,0.0,76,0.00,SCT,,0.00,WeatherDisplay:10.37,2013-02-05 13:57:00,
2013-02-05 06:00:00,46.1,39.3,30.09,South,186,0.0,0.0,77,0.00,SCT,,0.00,WeatherDisplay:10.37,2013-02-05 14:00:00,
2013-02-05 06:01:00,46.1,39.3,30.09,South,187,0.0,0.0,77,0.00,SCT,,0.00,WeatherDisplay:10.37,2013-02-05 14:01:00,
2013-02-05 06:02:00,46.1,39.0,30.09,South,186,0.0,0.0,76,0.00,SCT,,0.00,WeatherDisplay:10.37,2013-02-05 14:02:00,
2013-02-05 06:06:00,46.2,39.4,30.09,South,186,0.0,0.0,77,0.00,SCT,,0.00,WeatherDisplay:10.37,2013-02-05 14:06:00,
2013-02-05 06:07:00,46.1,39.3,30.09,South,186,0.0,0.0,77,0.00,SCT,,0.00,WeatherDisplay:10.37,2013-02-05 14:07:00,
2013-02-05 06:08:00,46.1,39.3,30.09,South,186,0.0,0.0,77,0.00,SCT,,0.00,WeatherDisplay:10.37,2013-02-05 14:08:00,
2013-02-05 06:11:00,46.1,39.3,30.09,SSE,167,4.6,4.6,77,0.00,SCT,,0.00,WeatherDisplay:10.37,2013-02-05 14:11:00,
2013-02-05 06:12:00,46.1,39.0,30.09,SSE,167,3.5,3.5,76,0.00,SCT,,0.00,WeatherDisplay:10.37,2013-02-05 14:12:00,
2013-02-05 06:13:00,46.2,39.4,30.09,South,188,3.0,3.0,77,0.00,SCT,,0.00,WeatherDisplay:10.37,2013-02-05 14:13:00,
2013-02-05 06:15:00,46.2,39.0,30.09,South,186,2.0,7.0,76,0.00,SCT,,0.00,WeatherDisplay:10.37,2013-02-05 14:15:00,
2013-02-05 06:16:00,46.1,39.0,30.09,SE,136,2.3,2.3,76,0.00,SCT,,0.00,WeatherDisplay:10.37,2013-02-05 14:16:00,
2013-02-05 06:18:00,46.1,39.0,30.09,SSW,192,3.5,3.5,76,0.00,SCT,,0.00,WeatherDisplay:10.37,2013-02-05 14:18:00,
2013-02-05 06:20:00,46.1,39.0,30.09,South,187,1.0,4.0,76,0.00,SCT,,0.00,WeatherDisplay:10.37,2013-02-05 14:20:00,
2013-02-05 06:22:00,46.1,39.0,30.10,South,191,3.5,3.5,76,0.00,SCT,,0.00,WeatherDisplay:10.37,2013-02-05 14:22:00,
2013-02-05 06:24:00,46.1,39.3,30.10,SSW,208,3.5,3.5,77,0.00,SCT,,0.00,WeatherDisplay:10.37,2013-02-05 14:24:00,
2013-02-05 06:25:00,46.2,39.3,30.09,SSW,199,1.0,3.0,77,0.00,SCT,,0.00,WeatherDisplay:10.37,2013-02-05 14:25:00,
2013-02-05 06:27:00,46.2,39.4,30.10,West,262,1.0,1.0,77,0.00,SCT,,0.00,WeatherDisplay:10.37,2013-02-05 14:27:00,
2013-02-05 06:30:00,46.2,39.1,30.10,West,274,0.0,0.0,76,0.00,SCT,,0.00,WeatherDisplay:10.37,2013-02-05 14:30:00,
2013-02-05 06:32:00,46.2,39.1,30.10,SSE,153,2.0,2.0,76,0.00,SCT,,0.00,WeatherDisplay:10.37,2013-02-05 14:32:00,
2013-02-05 06:35:00,46.2,39.1,30.10,South,185,1.1,0.0,76,0.00,SCT,,0.00,WeatherDisplay:10.37,2013-02-05 14:35:00,
2013-02-05 06:37:00,46.2,39.4,30.10,South,185,0.0,0.0,77,0.00,SCT,,0.00,WeatherDisplay:10.37,2013-02-05 14:37:00,
2013-02-05 06:40:00,46.2,39.1,30.10,SSE,157,3.5,3.5,76,0.00,SCT,,0.00,WeatherDisplay:10.37,2013-02-05 14:40:00,
2013-02-05 06:41:00,46.2,39.1,30.10,SSE,157,3.5,3.5,76,0.00,SCT,,0.00,WeatherDisplay:10.37,2013-02-05 14:41:00,
2013-02-05 06:44:00,46.3,39.1,30.10,SE,142,4.6,4.6,76,0.00,SCT,,0.00,WeatherDisplay:10.37,2013-02-05 14:44:00,
2013-02-05 06:45:00,46.2,39.1,30.10,East,92,4.6,4.6,76,0.00,SCT,,0.00,WeatherDisplay:10.37,2013-02-05 14:45:00,
2013-02-05 06:46:00,46.2,39.1,30.10,SSE,165,4.6,4.6,76,0.00,SCT,,0.00,WeatherDisplay:10.37,2013-02-05 14:46:00,
2013-02-05 06:49:00,46.2,39.1,30.10,West,277,1.1,0.0,76,0.00,SCT,,0.00,WeatherDisplay:10.37,2013-02-05 14:49:00,
2013-02-05 06:50:00,46.2,39.1,30.10,South,184,1.1,1.1,76,0.00,SCT,,0.00,WeatherDisplay:10.37,2013-02-05 14:50:00,
2013-02-05 06:51:00,46.2,39.1,30.10,South,180,2.3,2.3,76,0.00,SCT,,0.00,WeatherDisplay:10.37,2013-02-05 14:51:00,
2013-02-05 06:52:00,46.2,39.1,30.10,West,267,2.3,2.3,76,0.00,SCT,,0.00,WeatherDisplay:10.37,2013-02-05 14:52:00,
2013-02-05 06:54:00,46.2,38.7,30.10,South,182,3.5,3.5,75,0.00,SCT,,0.00,WeatherDisplay:10.37,2013-02-05 14:54:00,
2013-02-05 06:55:00,46.2,38.7,30.10,South,185,3.5,3.5,75,0.00,SCT,,0.00,WeatherDisplay:10.37,2013-02-05 14:55:00,
2013-02-05 06:57:00,46.2,39.1,30.10,South,172,0.0,0.0,76,0.00,SCT,,0.00,WeatherDisplay:10.37,2013-02-05 14:57:00,
2013-02-05 07:00:00,46.2,39.1,30.10,West,269,3.5,3.5,76,0.00,SCT,,0.00,WeatherDisplay:10.37,2013-02-05 15:00:00,
2013-02-05 07:02:00,46.3,38.8,30.10,West,269,2.3,2.3,75,0.00,SCT,,0.00,WeatherDisplay:10.37,2013-02-05 15:02:00,
2013-02-05 07:04:00,46.3,38.5,30.11,West,268,0.0,0.0,74,0.00,SCT,,0.00,WeatherDisplay:10.37,2013-02-05 15:04:00,
2013-02-05 07:05:00,46.2,38.7,30.11,SSW,192,7.0,7.0,75,0.00,SCT,,0.00,WeatherDisplay:10.37,2013-02-05 15:05:00,
2013-02-05 07:06:00,46.2,38.7,30.11,SSW,192,7.0,7.0,75,0.00,SCT,,0.00,WeatherDisplay:10.37,2013-02-05 15:06:00,
2013-02-05 07:09:00,46.2,38.7,30.11,West,272,2.3,2.3,75,0.00,SCT,,0.00,WeatherDisplay:10.37,2013-02-05 15:09:00,
2013-02-05 07:11:00,46.2,38.4,30.11,South,189,3.5,3.5,74,0.00,SCT,,0.00,WeatherDisplay:10.37,2013-02-05 15:11:00,
2013-02-05 07:14:00,46.2,38.7,30.11,West,268,0.0,0.0,75,0.00,SCT,,0.00,WeatherDisplay:10.37,2013-02-05 15:14:00,
2013-02-05 07:16:00,46.2,38.7,30.11,SW,221,3.5,3.5,75,0.00,SCT,,0.00,WeatherDisplay:10.37,2013-02-05 15:16:00,
2013-02-05 07:19:00,46.2,38.4,30.11,WSW,248,1.1,1.1,74,0.00,SCT,,0.00,WeatherDisplay:10.37,2013-02-05 15:19:00,
2013-02-05 07:20:00,46.2,38.7,30.11,West,266,1.1,1.1,75,0.00,SCT,,0.00,WeatherDisplay:10.37,2013-02-05 15:20:00,
2013-02-05 07:21:00,46.2,38.7,30.11,SSW,192,4.6,4.6,75,0.00,SCT,,0.00,WeatherDisplay:10.37,2013-02-05 15:21:00,
2013-02-05 07:22:00,46.2,38.7,30.11,South,191,4.6,4.6,75,0.00,SCT,,0.00,WeatherDisplay:10.37,2013-02-05 15:22:00,
2013-02-05 07:24:00,46.2,38.7,30.11,WSW,237,2.3,2.3,75,0.00,SCT,,0.00,WeatherDisplay:10.37,2013-02-05 15:24:00,
2013-02-05 07:25:00,46.2,38.7,30.11,West,265,2.3,2.3,75,0.00,SCT,,0.00,WeatherDisplay:10.37,2013-02-05 15:25:00,
2013-02-05 07:26:00,46.2,38.7,30.11,West,259,1.0,1.0,75,0.00,SCT,,0.00,WeatherDisplay:10.37,2013-02-05 15:26:00,
2013-02-05 07:27:00,46.2,38.4,30.11,WSW,254,1.0,1.0,74,0.00,SCT,,0.00,WeatherDisplay:10.37,2013-02-05 15:27:00,
2013-02-05 07:30:00,46.2,38.4,30.11,SW,218,0.0,3.0,74,0.00,SCT,,0.00,WeatherDisplay:10.37,2013-02-05 15:30:00,
2013-02-05 07:32:00,46.2,38.4,30.11,West,268,1.1,1.1,74,0.00,SCT,,0.00,WeatherDisplay:10.37,2013-02-05 15:32:00,
2013-02-05 07:35:00,46.2,38.4,30.11,South,185,2.3,2.3,74,0.00,SCT,,0.00,WeatherDisplay:10.37,2013-02-05 15:35:00,
2013-02-05 07:36:00,46.2,38.4,30.11,South,174,2.3,2.3,74,0.00,SCT,,0.00,WeatherDisplay:10.37,2013-02-05 15:36:00,
2013-02-05 07:37:00,46.2,38.4,30.11,South,191,2.3,2.3,74,0.00,SCT,,0.00,WeatherDisplay:10.37,2013-02-05 15:37:00,
2013-02-05 07:38:00,46.3,38.5,30.11,South,190,1.1,0.0,74,0.00,SCT,,0.00,WeatherDisplay:10.37,2013-02-05 15:38:00,
2013-02-05 07:41:00,46.3,38.5,30.11,SSW,203,2.3,2.3,74,0.00,SCT,,0.00,WeatherDisplay:10.37,2013-02-05 15:41:00,
2013-02-05 07:42:00,46.3,38.5,30.11,SSW,207,3.5,3.5,74,0.00,SCT,,0.00,WeatherDisplay:10.37,2013-02-05 15:42:00,
2013-02-05 07:43:00,46.3,38.5,30.11,SSW,212,2.3,2.3,74,0.00,SCT,,0.00,WeatherDisplay:10.37,2013-02-05 15:43:00,
2013-02-05 07:45:00,46.3,38.5,30.11,SSW,204,0.0,3.0,74,0.00,SCT,,0.00,WeatherDisplay:10.37,2013-02-05 15:45:00,
2013-02-05 07:46:00,46.4,38.6,30.11,West,266,3.5,3.5,74,0.00,SCT,,0.00,WeatherDisplay:10.37,2013-02-05 15:46:00,
2013-02-05 07:48:00,46.4,38.6,30.11,SE,139,3.5,3.5,74,0.00,SCT,,0.00,WeatherDisplay:10.37,2013-02-05 15:48:00,
2013-02-05 07:50:00,46.4,38.6,30.11,South,185,1.1,1.1,74,0.00,SCT,,0.00,WeatherDisplay:10.37,2013-02-05 15:50:00,
2013-02-05 07:53:00,46.5,38.7,30.11,West,279,2.3,2.3,74,0.00,SCT,,0.00,WeatherDisplay:10.37,2013-02-05 15:53:00,
2013-02-05 07:54:00,46.5,38.7,30.11,West,279,0.0,0.0,74,0.00,SCT,,0.00,WeatherDisplay:10.37,2013-02-05 15:54:00,
2013-02-05 07:56:00,46.5,38.7,30.12,SSW,203,1.0,1.0,74,0.00,SCT,,0.00,WeatherDisplay:10.37,2013-02-05 15:56:00,
2013-02-05 07:59:00,46.6,38.8,30.12,SSE,160,3.5,3.5,74,0.00,SCT,,0.00,WeatherDisplay:10.37,2013-02-05 15:59:00,
2013-02-05 08:00:00,46.5,38.7,30.12,SSE,160,3.5,3.5,74,0.00,SCT,,0.00,WeatherDisplay:10.37,2013-02-05 16:00:00,
2013-02-05 08:01:00,46.6,38.8,30.12,SSW,195,2.3,2.3,74,0.00,SCT,,0.00,WeatherDisplay:10.37,2013-02-05 16:01:00,
2013-02-05 08:05:00,46.6,38.8,30.12,SSW,195,1.1,1.1,74,0.00,SCT,,0.00,WeatherDisplay:10.37,2013-02-05 16:05:00,
2013-02-05 08:07:00,46.6,38.8,30.12,West,269,3.5,3.5,74,0.00,SCT,,0.00,WeatherDisplay:10.37,2013-02-05 16:07:00,
2013-02-05 08:10:00,46.6,38.8,30.12,SSW,210,2.3,2.3,74,0.00,SCT,,0.00,WeatherDisplay:10.37,2013-02-05 16:10:00,
2013-02-05 08:14:00,46.7,38.5,30.12,SSW,210,1.1,1.1,73,0.00,SCT,,0.00,WeatherDisplay:10.37,2013-02-05 16:14:00,
2013-02-05 08:15:00,46.7,38.5,30.12,South,183,5.8,5.8,73,0.00,SCT,,0.00,WeatherDisplay:10.37,2013-02-05 16:15:00,
2013-02-05 08:19:00,46.7,38.5,30.13,WSW,239,5.8,5.8,73,0.00,SCT,,0.00,WeatherDisplay:10.37,2013-02-05 16:19:00,
2013-02-05 08:20:00,46.7,38.9,30.13,West,266,6.9,6.9,74,0.00,SCT,,0.00,WeatherDisplay:10.37,2013-02-05 16:20:00,
2013-02-05 08:21:00,46.7,38.9,30.13,West,266,6.9,6.9,74,0.00,SCT,,0.00,WeatherDisplay:10.37,2013-02-05 16:21:00,
2013-02-05 08:25:00,46.7,38.9,30.13,West,266,0.0,0.0,74,0.00,SCT,,0.00,WeatherDisplay:10.37,2013-02-05 16:25:00,
2013-02-05 08:26:00,46.8,38.9,30.12,West,262,1.1,1.1,74,0.00,SCT,,0.00,WeatherDisplay:10.37,2013-02-05 16:26:00,
2013-02-05 08:27:00,46.8,38.9,30.12,South,180,2.0,2.0,74,0.00,SCT,,0.00,WeatherDisplay:10.37,2013-02-05 16:27:00,
2013-02-05 08:30:00,46.8,38.6,30.12,South,187,4.6,4.6,73,0.00,SCT,,0.00,WeatherDisplay:10.37,2013-02-05 16:30:00,
2013-02-05 08:31:00,46.9,38.7,30.12,SSW,193,4.6,4.6,73,0.00,SCT,,0.00,WeatherDisplay:10.37,2013-02-05 16:31:00,
2013-02-05 08:34:00,46.9,38.7,30.13,SW,221,1.1,1.1,73,0.00,SCT,,0.00,WeatherDisplay:10.37,2013-02-05 16:34:00,
2013-02-05 08:35:00,46.9,38.7,30.13,SE,146,2.3,2.3,73,0.00,SCT,,0.00,WeatherDisplay:10.37,2013-02-05 16:35:00,
2013-02-05 08:36:00,46.9,38.7,30.13,South,179,2.3,2.3,73,0.00,SCT,,0.00,WeatherDisplay:10.37,2013-02-05 16:36:00,
2013-02-05 08:37:00,47.0,38.8,30.12,SSE,155,3.5,3.5,73,0.00,SCT,,0.00,WeatherDisplay:10.37,2013-02-05 16:37:00,
2013-02-05 08:40:00,47.1,38.5,30.13,SE,141,3.5,3.5,72,0.00,SCT,,0.00,WeatherDisplay:10.37,2013-02-05 16:40:00,
2013-02-05 08:41:00,47.1,38.5,30.13,SE,140,3.5,3.5,72,0.00,SCT,,0.00,WeatherDisplay:10.37,2013-02-05 16:41:00,
2013-02-05 08:42:00,47.1,38.5,30.12,South,186,4.6,4.6,72,0.00,SCT,,0.00,WeatherDisplay:10.37,2013-02-05 16:42:00,
2013-02-05 08:46:00,47.2,38.6,30.12,NE,45,3.5,3.5,72,0.00,SCT,,0.00,WeatherDisplay:10.37,2013-02-05 16:46:00,
2013-02-05 08:49:00,47.3,38.4,30.12,SSE,151,5.8,5.8,71,0.00,SCT,,0.00,WeatherDisplay:10.37,2013-02-05 16:49:00,
2013-02-05 08:51:00,47.3,38.4,30.12,West,268,2.3,2.3,71,0.00,SCT,,0.00,WeatherDisplay:10.37,2013-02-05 16:51:00,
2013-02-05 08:52:00,47.3,38.7,30.12,WSW,246,2.3,2.3,72,0.00,SCT,,0.00,WeatherDisplay:10.37,2013-02-05 16:52:00,
2013-02-05 08:54:00,47.4,38.5,30.13,WSW,246,3.0,3.0,71,0.00,SCT,,0.00,WeatherDisplay:10.37,2013-02-05 16:54:00,
2013-02-05 08:56:00,47.4,38.5,30.13,SSW,200,4.6,4.6,71,0.00,SCT,,0.00,WeatherDisplay:10.37,2013-02-05 16:56:00,
2013-02-05 08:57:00,47.4,38.5,30.13,WNW,283,3.5,3.5,71,0.00,SCT,,0.00,WeatherDisplay:10.37,2013-02-05 16:57:00,
2013-02-05 09:00:00,47.5,38.6,30.13,SW,214,3.5,3.5,71,0.00,SCT,,0.00,WeatherDisplay:10.37,2013-02-05 17:00:00,
2013-02-05 09:01:00,47.5,38.6,30.13,SE,131,6.9,6.9,71,0.00,SCT,,0.00,WeatherDisplay:10.37,2013-02-05 17:01:00,
2013-02-05 09:02:00,47.5,38.6,30.13,SE,131,6.9,6.9,71,0.00,SCT,,0.00,WeatherDisplay:10.37,2013-02-05 17:02:00,
2013-02-05 09:05:00,47.6,38.7,30.13,SSE,156,4.6,4.6,71,0.00,SCT,,0.00,WeatherDisplay:10.37,2013-02-05 17:05:00,
2013-02-05 09:06:00,47.7,38.8,30.13,SSE,168,5.8,5.8,71,0.00,SCT,,0.00,WeatherDisplay:10.37,2013-02-05 17:06:00,
2013-02-05 09:07:00,47.7,38.8,30.13,SSE,168,5.8,5.8,71,0.00,SCT,,0.00,WeatherDisplay:10.37,2013-02-05 17:07:00,
2013-02-05 09:10:00,48.2,38.9,30.13,South,179,2.3,2.3,70,0.00,SCT,,0.00,WeatherDisplay:10.37,2013-02-05 17:10:00,
2013-02-05 09:12:00,48.5,38.8,30.13,South,183,3.5,3.5,69,0.00,SCT,,0.00,WeatherDisplay:10.37,2013-02-05 17:12:00,
2013-02-05 09:13:00,48.6,38.5,30.13,SSE,158,3.5,3.5,68,0.00,SCT,,0.00,WeatherDisplay:10.37,2013-02-05 17:13:00,
2013-02-05 09:15:00,48.9,39.2,30.13,SE,126,3.5,3.5,69,0.00,SCT,,0.00,WeatherDisplay:10.37,2013-02-05 17:15:00,
2013-02-05 09:17:00,49.2,39.1,30.13,SSW,202,3.5,3.5,68,0.00,SCT,,0.00,WeatherDisplay:10.37,2013-02-05 17:17:00,
2013-02-05 09:18:00,49.2,39.1,30.13,SSW,193,3.5,3.5,68,0.00,SCT,,0.00,WeatherDisplay:10.37,2013-02-05 17:18:00,
2013-02-05 09:20:00,49.3,39.2,30.13,WSW,249,2.3,2.3,68,0.00,SCT,,0.00,WeatherDisplay:10.37,2013-02-05 17:20:00,
2013-02-05 09:23:00,49.2,39.1,30.13,South,189,5.8,5.8,68,0.00,SCT,,0.00,WeatherDisplay:10.37,2013-02-05 17:23:00,
2013-02-05 09:25:00,49.2,39.1,30.13,South,183,2.3,2.3,68,0.00,SCT,,0.00,WeatherDisplay:10.37,2013-02-05 17:25:00,
2013-02-05 09:28:00,49.2,39.1,30.13,WSW,258,1.1,0.0,68,0.00,SCT,,0.00,WeatherDisplay:10.37,2013-02-05 17:28:00,
2013-02-05 09:30:00,49.3,39.6,30.13,SW,222,4.6,4.6,69,0.00,SCT,,0.00,WeatherDisplay:10.37,2013-02-05 17:30:00,
2013-02-05 09:31:00,49.4,39.3,30.12,SSW,195,5.8,0.0,68,0.00,SCT,,0.00,WeatherDisplay:10.37,2013-02-05 17:31:00,
2013-02-05 09:33:00,49.4,39.7,30.13,SSE,159,2.3,2.3,69,0.00,SCT,,0.00,WeatherDisplay:10.37,2013-02-05 17:33:00,
2013-02-05 09:35:00,49.5,39.4,30.13,SW,232,2.3,2.3,68,0.00,SCT,,0.00,WeatherDisplay:10.37,2013-02-05 17:35:00,
2013-02-05 09:36:00,49.5,39.4,30.13,SW,215,6.9,6.9,68,0.00,SCT,,0.00,WeatherDisplay:10.37,2013-02-05 17:36:00,
2013-02-05 09:38:00,49.6,39.5,30.13,South,189,3.5,3.5,68,0.00,SCT,,0.00,WeatherDisplay:10.37,2013-02-05 17:38:00,
2013-02-05 09:39:00,49.5,39.4,30.13,SSW,198,3.5,3.5,68,0.00,SCT,,0.00,WeatherDisplay:10.37,2013-02-05 17:39:00,
2013-02-05 09:40:00,49.6,39.5,30.12,SSW,213,2.3,2.3,68,0.00,SCT,,0.00,WeatherDisplay:10.37,2013-02-05 17:40:00,
2013-02-05 09:41:00,49.6,39.1,30.12,South,172,3.5,3.5,67,0.00,SCT,,0.00,WeatherDisplay:10.37,2013-02-05 17:41:00,
2013-02-05 09:44:00,49.8,39.3,30.13,South,173,3.5,3.5,67,0.00,SCT,,0.00,WeatherDisplay:10.37,2013-02-05 17:44:00,
2013-02-05 09:46:00,49.9,39.4,30.13,SSE,162,8.1,8.1,67,0.00,SCT,,0.00,WeatherDisplay:10.37,2013-02-05 17:46:00,
2013-02-05 09:47:00,50.0,39.5,30.13,South,179,8.1,8.1,67,0.00,SCT,,0.00,WeatherDisplay:10.37,2013-02-05 17:47:00,
2013-02-05 09:49:00,50.2,39.7,30.12,South,189,3.5,3.5,67,0.00,SCT,,0.00,WeatherDisplay:10.37,2013-02-05 17:49:00,
2013-02-05 09:52:00,50.5,39.9,30.12,SSW,199,4.6,4.6,67,0.00,SCT,,0.00,WeatherDisplay:10.37,2013-02-05 17:52:00,
2013-02-05 09:53:00,50.5,39.6,30.12,South,185,8.1,8.1,66,0.00,SCT,,0.00,WeatherDisplay:10.37,2013-02-05 17:53:00,
2013-02-05 09:55:00,50.5,39.6,30.12,SSE,162,8.1,8.1,66,0.00,SCT,,0.00,WeatherDisplay:10.37,2013-02-05 17:55:00,
2013-02-05 09:57:00,50.8,39.8,30.13,SSW,201,4.6,4.6,66,0.00,SCT,,0.00,WeatherDisplay:10.37,2013-02-05 17:57:00,
2013-02-05 09:58:00,50.9,39.5,30.13,SSW,200,3.5,3.5,65,0.00,SCT,,0.00,WeatherDisplay:10.37,2013-02-05 17:58:00,
2013-02-05 10:00:00,51.1,39.7,30.13,SSW,196,3.5,3.5,65,0.00,SCT,,0.00,WeatherDisplay:10.37,2013-02-05 18:00:00,
2013-02-05 10:02:00,51.3,39.9,30.13,WSW,242,10.4,10.4,65,0.00,SCT,,0.00,WeatherDisplay:10.37,2013-02-05 18:02:00,
2013-02-05 10:03:00,51.3,39.5,30.12,SW,230,3.5,3.5,64,0.00,SCT,,0.00,WeatherDisplay:10.37,2013-02-05 18:03:00,
2013-02-05 10:05:00,51.4,40.0,30.12,West,265,4.6,4.6,65,0.00,SCT,,0.00,WeatherDisplay:10.37,2013-02-05 18:05:00,
2013-02-05 10:07:00,51.5,40.1,30.13,WSW,247,3.5,3.5,65,0.00,SCT,,0.00,WeatherDisplay:10.37,2013-02-05 18:07:00,
2013-02-05 10:08:00,51.6,40.2,30.13,SSW,192,3.5,3.5,65,0.00,SCT,,0.00,WeatherDisplay:10.37,2013-02-05 18:08:00,
2013-02-05 10:10:00,51.7,39.9,30.13,SW,218,1.0,4.0,64,0.00,SCT,,0.00,WeatherDisplay:10.37,2013-02-05 18:10:00,
2013-02-05 10:12:00,51.8,40.4,30.12,SSW,205,4.6,4.6,65,0.00,SCT,,0.00,WeatherDisplay:10.37,2013-02-05 18:12:00,
2013-02-05 10:13:00,51.9,40.5,30.12,SSE,162,3.5,3.5,65,0.00,SCT,,0.00,WeatherDisplay:10.37,2013-02-05 18:13:00,
2013-02-05 10:15:00,52.0,40.2,30.13,WSW,238,4.0,4.0,64,0.00,SCT,,0.00,WeatherDisplay:10.37,2013-02-05 18:15:00,
2013-02-05 10:16:00,52.1,40.3,30.12,SSW,201,4.0,4.0,64,0.00,SCT,,0.00,WeatherDisplay:10.37,2013-02-05 18:16:00,
2013-02-05 10:18:00,52.3,40.5,30.13,WSW,237,4.0,4.0,64,0.00,SCT,,0.00,WeatherDisplay:10.37,2013-02-05 18:18:00,
2013-02-05 10:20:00,52.5,40.3,30.13,South,189,4.6,4.6,63,0.00,SCT,,0.00,WeatherDisplay:10.37,2013-02-05 18:20:00,
2013-02-05 10:21:00,52.6,40.8,30.13,South,178,3.5,3.5,64,0.00,SCT,,0.00,WeatherDisplay:10.37,2013-02-05 18:21:00,
2013-02-05 10:23:00,52.8,40.5,30.13,SSE,147,4.6,4.6,63,0.00,SCT,,0.00,WeatherDisplay:10.37,2013-02-05 18:23:00,
2013-02-05 10:25:00,52.9,40.6,30.13,SSW,208,4.0,4.0,63,0.00,SCT,,0.00,WeatherDisplay:10.37,2013-02-05 18:25:00,
2013-02-05 10:28:00,53.1,40.4,30.13,SSW,211,4.6,4.6,62,0.00,SCT,,0.00,WeatherDisplay:10.37,2013-02-05 18:28:00,
2013-02-05 10:29:00,53.1,40.4,30.13,WSW,239,4.6,4.6,62,0.00,SCT,,0.00,WeatherDisplay:10.37,2013-02-05 18:29:00,
2013-02-05 10:30:00,53.1,40.4,30.13,South,169,6.9,6.9,62,0.00,SCT,,0.00,WeatherDisplay:10.37,2013-02-05 18:30:00,
2013-02-05 10:32:00,53.0,39.9,30.13,South,186,8.1,8.1,61,0.00,SCT,,0.00,WeatherDisplay:10.37,2013-02-05 18:32:00,
2013-02-05 10:33:00,53.0,40.3,30.13,SE,131,8.1,8.1,62,0.00,SCT,,0.00,WeatherDisplay:10.37,2013-02-05 18:33:00,
2013-02-05 10:34:00,52.9,40.2,30.13,SSW,194,8.1,8.1,62,0.00,SCT,,0.00,WeatherDisplay:10.37,2013-02-05 18:34:00,
2013-02-05 10:35:00,52.9,40.2,30.13,SSW,194,2.3,2.3,62,0.00,SCT,,0.00,WeatherDisplay:10.37,2013-02-05 18:35:00,
2013-02-05 10:38:00,52.8,40.5,30.13,SW,230,4.6,4.6,63,0.00,SCT,,0.00,WeatherDisplay:10.37,2013-02-05 18:38:00,
2013-02-05 10:39:00,52.8,40.1,30.13,ESE,114,3.5,3.5,62,0.00,SCT,,0.00,WeatherDisplay:10.37,2013-02-05 18:39:00,
2013-02-05 10:41:00,52.9,40.6,30.13,WSW,251,0.0,0.0,63,0.00,SCT,,0.00,WeatherDisplay:10.37,2013-02-05 18:41:00,
2013-02-05 10:43:00,52.9,40.2,30.13,NE,46,0.0,0.8,62,0.00,SCT,,0.00,WeatherDisplay:10.37,2013-02-05 18:43:00,
2013-02-05 10:44:00,52.8,40.5,30.13,SSE,160,2.3,2.3,63,0.00,SCT,,0.00,WeatherDisplay:10.37,2013-02-05 18:44:00,
2013-02-05 10:47:00,52.9,40.6,30.13,West,268,3.5,3.5,63,0.00,SCT,,0.00,WeatherDisplay:10.37,2013-02-05 18:47:00,
2013-02-05 10:48:00,52.9,40.6,30.13,WSW,253,3.5,3.5,63,0.00,SCT,,0.00,WeatherDisplay:10.37,2013-02-05 18:48:00,
2013-02-05 10:49:00,52.9,40.6,30.13,WSW,253,1.1,0.0,63,0.00,SCT,,0.00,WeatherDisplay:10.37,2013-02-05 18:49:00,
2013-02-05 10:50:00,52.9,40.6,30.13,South,176,0.0,4.0,63,0.00,SCT,,0.00,WeatherDisplay:10.37,2013-02-05 18:50:00,
2013-02-05 10:52:00,53.0,40.3,30.13,SW,228,4.6,4.6,62,0.00,SCT,,0.00,WeatherDisplay:10.37,2013-02-05 18:52:00,
2013-02-05 10:54:00,53.0,40.3,30.13,SSW,204,6.9,6.9,62,0.00,SCT,,0.00,WeatherDisplay:10.37,2013-02-05 18:54:00,
2013-02-05 10:55:00,53.0,40.3,30.13,South,184,6.9,6.9,62,0.00,SCT,,0.00,WeatherDisplay:10.37,2013-02-05 18:55:00,
2013-02-05 10:57:00,53.0,40.7,30.14,SSW,197,3.5,3.5,63,0.00,SCT,,0.00,WeatherDisplay:10.37,2013-02-05 18:57:00,
2013-02-05 11:00:00,53.1,40.4,30.13,SW,221,9.2,9.2,62,0.00,SCT,,0.00,WeatherDisplay:10.37,2013-02-05 19:00:00,
2013-02-05 11:01:00,53.2,40.9,30.13,SSW,206,4.6,4.6,63,0.00,SCT,,0.00,WeatherDisplay:10.37,2013-02-05 19:01:00,
2013-02-05 11:02:00,53.3,41.0,30.13,SSW,209,4.6,4.6,63,0.00,SCT,,0.00,WeatherDisplay:10.37,2013-02-05 19:02:00,
2013-02-05 11:05:00,53.6,41.3,30.13,SSW,208,1.0,5.0,63,0.00,SCT,,0.00,WeatherDisplay:10.37,2013-02-05 19:05:00,
2013-02-05 11:07:00,53.9,41.2,30.13,WSW,257,2.3,2.3,62,0.00,SCT,,0.00,WeatherDisplay:10.37,2013-02-05 19:07:00,
2013-02-05 11:10:00,54.0,40.8,30.13,SSW,202,3.0,8.0,61,0.00,SCT,,0.00,WeatherDisplay:10.37,2013-02-05 19:10:00,
2013-02-05 11:11:00,54.0,40.8,30.13,SW,221,6.9,6.9,61,0.00,SCT,,0.00,WeatherDisplay:10.37,2013-02-05 19:11:00,
2013-02-05 11:13:00,54.1,41.4,30.13,West,275,3.5,3.5,62,0.00,SCT,,0.00,WeatherDisplay:10.37,2013-02-05 19:13:00,
2013-02-05 11:15:00,54.1,41.4,30.13,WSW,247,3.5,3.5,62,0.00,SCT,,0.00,WeatherDisplay:10.37,2013-02-05 19:15:00,
2013-02-05 11:16:00,54.1,41.4,30.13,SW,214,3.5,3.5,62,0.00,SCT,,0.00,WeatherDisplay:10.37,2013-02-05 19:16:00,
2013-02-05 11:18:00,54.1,40.9,30.13,SSW,195,3.5,3.5,61,0.00,SCT,,0.00,WeatherDisplay:10.37,2013-02-05 19:18:00,
2013-02-05 11:20:00,54.0,40.8,30.13,SSW,212,2.0,2.0,61,0.00,SCT,,0.00,WeatherDisplay:10.37,2013-02-05 19:20:00,
2013-02-05 11:21:00,54.0,40.8,30.13,SW,215,1.1,1.2,61,0.00,SCT,,0.00,WeatherDisplay:10.37,2013-02-05 19:21:00,
2013-02-05 11:23:00,54.1,40.9,30.13,WSW,255,3.5,3.5,61,0.00,SCT,,0.00,WeatherDisplay:10.37,2013-02-05 19:23:00,
2013-02-05 11:26:00,54.0,41.3,30.13,West,268,1.1,0.0,62,0.00,SCT,,0.00,WeatherDisplay:10.37,2013-02-05 19:26:00,
2013-02-05 11:28:00,54.1,40.9,30.12,SSW,207,5.8,5.8,61,0.00,SCT,,0.00,WeatherDisplay:10.37,2013-02-05 19:28:00,
2013-02-05 11:30:00,54.1,40.9,30.13,SW,234,9.2,9.2,61,0.00,SCT,,0.00,WeatherDisplay:10.37,2013-02-05 19:30:00,
2013-02-05 11:31:00,54.1,40.9,30.13,WSW,242,9.2,9.2,61,0.00,SCT,,0.00,WeatherDisplay:10.37,2013-02-05 19:31:00,
2013-02-05 11:34:00,54.2,41.0,30.12,South,174,0.0,0.0,61,0.00,SCT,,0.00,WeatherDisplay:10.37,2013-02-05 19:34:00,
2013-02-05 11:35:00,54.2,41.0,30.12,South,183,1.1,1.1,61,0.00,SCT,,0.00,WeatherDisplay:10.37,2013-02-05 19:35:00,
2013-02-05 11:37:00,54.2,41.0,30.12,WSW,257,1.1,1.1,61,0.00,SCT,,0.00,WeatherDisplay:10.37,2013-02-05 19:37:00,
2013-02-05 11:39:00,54.3,41.1,30.12,SSW,199,1.1,1.1,61,0.00,SCT,,0.00,WeatherDisplay:10.37,2013-02-05 19:39:00,
2013-02-05 11:40:00,54.3,41.1,30.12,SSW,199,0.0,0.0,61,0.00,SCT,,0.00,WeatherDisplay:10.37,2013-02-05 19:40:00,
2013-02-05 11:42:00,54.3,41.1,30.12,SSW,199,0.0,0.0,61,0.00,SCT,,0.00,WeatherDisplay:10.37,2013-02-05 19:42:00,
2013-02-05 11:44:00,54.4,40.8,30.12,South,169,4.6,4.6,60,0.00,SCT,,0.00,WeatherDisplay:10.37,2013-02-05 19:44:00,
2013-02-05 11:46:00,54.5,40.9,30.12,WSW,244,3.5,3.5,60,0.00,SCT,,0.00,WeatherDisplay:10.37,2013-02-05 19:46:00,
2013-02-05 11:47:00,54.5,41.3,30.12,WSW,244,3.5,3.5,61,0.00,SCT,,0.00,WeatherDisplay:10.37,2013-02-05 19:47:00,
2013-02-05 11:50:00,54.6,41.4,30.12,South,183,2.3,2.3,61,0.00,SCT,,0.00,WeatherDisplay:10.37,2013-02-05 19:50:00,
2013-02-05 11:51:00,54.7,41.1,30.12,SE,143,3.5,3.5,60,0.00,SCT,,0.00,WeatherDisplay:10.37,2013-02-05 19:51:00,
2013-02-05 11:52:00,54.8,41.2,30.12,SSW,203,3.5,3.5,60,0.00,SCT,,0.00,WeatherDisplay:10.37,2013-02-05 19:52:00,
2013-02-05 11:55:00,54.8,41.2,30.12,West,264,1.1,1.1,60,0.00,SCT,,0.00,WeatherDisplay:10.37,2013-02-05 19:55:00,
2013-02-05 11:57:00,54.8,41.6,30.11,South,186,4.6,4.6,61,0.00,SCT,,0.00,WeatherDisplay:10.37,2013-02-05 19:57:00,
2013-02-05 11:58:00,54.8,41.6,30.12,West,271,3.5,3.5,61,0.00,SCT,,0.00,WeatherDisplay:10.37,2013-02-05 19:58:00,
2013-02-05 12:00:00,54.9,41.3,30.12,West,270,1.1,1.1,60,0.00,SCT,,0.00,WeatherDisplay:10.37,2013-02-05 20:00:00,
2013-02-05 12:02:00,54.9,41.3,30.12,SSW,211,4.6,4.6,60,0.00,SCT,,0.00,WeatherDisplay:10.37,2013-02-05 20:02:00,
2013-02-05 12:03:00,54.9,41.3,30.11,SSW,210,3.5,3.5,60,0.00,SCT,,0.00,WeatherDisplay:10.37,2013-02-05 20:03:00,
2013-02-05 12:05:00,55.0,40.9,30.11,SSW,203,2.3,2.3,59,0.00,SCT,,0.00,WeatherDisplay:10.37,2013-02-05 20:05:00,
2013-02-05 12:08:00,55.0,41.4,30.12,WSW,256,3.0,3.0,60,0.00,SCT,,0.00,WeatherDisplay:10.37,2013-02-05 20:08:00,
2013-02-05 12:09:00,55.0,40.9,30.12,West,263,3.5,3.5,59,0.00,SCT,,0.00,WeatherDisplay:10.37,2013-02-05 20:09:00,
2013-02-05 12:10:00,54.9,41.3,30.12,WSW,257,2.3,0.0,60,0.00,SCT,,0.00,WeatherDisplay:10.37,2013-02-05 20:10:00,
2013-02-05 12:11:00,54.9,41.3,30.12,WSW,257,2.3,0.0,60,0.00,SCT,,0.00,WeatherDisplay:10.37,2013-02-05 20:11:00,
2013-02-05 12:13:00,54.9,41.3,30.12,SSW,203,3.0,3.0,60,0.00,SCT,,0.00,WeatherDisplay:10.37,2013-02-05 20:13:00,
2013-02-05 12:15:00,55.0,41.4,30.12,WNW,286,3.5,3.5,60,0.00,SCT,,0.00,WeatherDisplay:10.37,2013-02-05 20:15:00,
2013-02-05 12:16:00,55.0,41.4,30.11,West,261,3.5,3.5,60,0.00,SCT,,0.00,WeatherDisplay:10.37,2013-02-05 20:16:00,
2013-02-05 12:19:00,55.1,41.5,30.11,West,270,3.5,3.5,60,0.00,SCT,,0.00,WeatherDisplay:10.37,2013-02-05 20:19:00,
2013-02-05 12:20:00,55.1,41.9,30.11,West,270,1.1,1.1,61,0.00,SCT,,0.00,WeatherDisplay:10.37,2013-02-05 20:20:00,
2013-02-05 12:21:00,55.1,41.5,30.11,WSW,254,3.5,3.5,60,0.00,SCT,,0.00,WeatherDisplay:10.37,2013-02-05 20:21:00,
2013-02-05 12:22:00,55.1,41.5,30.11,South,177,3.5,3.5,60,0.00,SCT,,0.00,WeatherDisplay:10.37,2013-02-05 20:22:00,
2013-02-05 12:24:00,55.2,41.5,30.11,East,97,5.8,5.8,60,0.00,SCT,,0.00,WeatherDisplay:10.37,2013-02-05 20:24:00,
2013-02-05 12:25:00,55.2,41.5,30.11,East,99,3.5,3.5,60,0.00,SCT,,0.00,WeatherDisplay:10.37,2013-02-05 20:25:00,
2013-02-05 12:27:00,55.2,41.5,30.11,SSW,201,2.3,2.3,60,0.00,SCT,,0.00,WeatherDisplay:10.37,2013-02-05 20:27:00,
2013-02-05 12:30:00,55.3,41.6,30.11,SE,137,4.6,4.6,60,0.00,SCT,,0.00,WeatherDisplay:10.37,2013-02-05 20:30:00,
2013-02-05 12:32:00,55.3,42.1,30.11,SW,214,3.5,3.5,61,0.00,SCT,,0.00,WeatherDisplay:10.37,2013-02-05 20:32:00,
2013-02-05 12:33:00,55.4,41.7,30.11,South,189,3.0,3.0,60,0.00,SCT,,0.00,WeatherDisplay:10.37,2013-02-05 20:33:00,
2013-02-05 12:35:00,55.4,41.7,30.11,SW,233,2.3,2.3,60,0.00,SCT,,0.00,WeatherDisplay:10.37,2013-02-05 20:35:00,
2013-02-05 12:37:00,55.4,41.7,30.11,WSW,249,3.5,3.5,60,0.00,SCT,,0.00,WeatherDisplay:10.37,2013-02-05 20:37:00,
2013-02-05 12:40:00,55.4,41.7,30.11,SW,220,4.6,4.6,60,0.00,SCT,,0.00,WeatherDisplay:10.37,2013-02-05 20:40:00,
2013-02-05 12:41:00,55.4,42.2,30.11,South,187,2.3,2.3,61,0.00,SCT,,0.00,WeatherDisplay:10.37,2013-02-05 20:41:00,
2013-02-05 12:45:00,55.5,41.8,30.11,SSE,162,4.6,4.6,60,0.00,SCT,,0.00,WeatherDisplay:10.37,2013-02-05 20:45:00,
2013-02-05 12:47:00,55.4,42.2,30.11,SW,221,3.5,3.5,61,0.00,SCT,,0.00,WeatherDisplay:10.37,2013-02-05 20:47:00,
2013-02-05 12:50:00,55.4,42.2,30.10,SSE,160,1.1,0.0,61,0.00,SCT,,0.00,WeatherDisplay:10.37,2013-02-05 20:50:00,
2013-02-05 12:52:00,55.5,42.3,30.10,NE,50,2.3,2.3,61,0.00,SCT,,0.00,WeatherDisplay:10.37,2013-02-05 20:52:00,
2013-02-05 12:55:00,55.4,42.2,30.10,ESE,112,5.0,5.0,61,0.00,SCT,,0.00,WeatherDisplay:10.37,2013-02-05 20:55:00,
2013-02-05 12:56:00,55.4,42.2,30.11,South,181,5.8,5.8,61,0.00,SCT,,0.00,WeatherDisplay:10.37,2013-02-05 20:56:00,
2013-02-05 12:57:00,55.4,42.2,30.10,South,185,3.5,3.5,61,0.00,SCT,,0.00,WeatherDisplay:10.37,2013-02-05 20:57:00,
2013-02-05 13:00:00,55.3,42.5,30.10,WSW,249,3.5,3.5,62,0.00,SCT,,0.00,WeatherDisplay:10.37,2013-02-05 21:00:00,
2013-02-05 13:01:00,55.3,42.5,30.10,WSW,249,1.1,1.1,62,0.00,SCT,,0.00,WeatherDisplay:10.37,2013-02-05 21:01:00,
2013-02-05 13:02:00,55.3,42.5,30.10,WSW,256,2.0,2.0,62,0.00,SCT,,0.00,WeatherDisplay:10.37,2013-02-05 21:02:00,
2013-02-05 13:05:00,55.3,42.5,30.10,West,262,2.3,2.3,62,0.00,SCT,,0.00,WeatherDisplay:10.37,2013-02-05 21:05:00,
2013-02-05 13:06:00,55.3,42.5,30.11,West,261,2.3,2.3,62,0.00,SCT,,0.00,WeatherDisplay:10.37,2013-02-05 21:06:00,
2013-02-05 13:07:00,55.3,42.5,30.10,SSE,159,2.3,2.3,62,0.00,SCT,,0.00,WeatherDisplay:10.37,2013-02-05 21:07:00,
2013-02-05 13:11:00,55.2,42.4,30.10,South,176,5.8,5.8,62,0.00,SCT,,0.00,WeatherDisplay:10.37,2013-02-05 21:11:00,
2013-02-05 13:15:00,55.2,42.8,30.10,SSE,161,0.0,6.0,63,0.00,SCT,,0.00,WeatherDisplay:10.37,2013-02-05 21:15:00,
2013-02-05 13:16:00,55.3,42.5,30.10,South,187,0.0,0.4,62,0.00,SCT,,0.00,WeatherDisplay:10.37,2013-02-05 21:16:00,
2013-02-05 13:17:00,55.3,42.9,30.10,SSW,205,2.3,2.3,63,0.00,SCT,,0.00,WeatherDisplay:10.37,2013-02-05 21:17:00,
2013-02-05 13:21:00,55.4,42.6,30.10,SSW,199,3.5,3.5,62,0.00,SCT,,0.00,WeatherDisplay:10.37,2013-02-05 21:21:00,
2013-02-05 13:24:00,55.5,42.7,30.10,South,177,3.5,3.5,62,0.00,SCT,,0.00,WeatherDisplay:10.37,2013-02-05 21:24:00,
2013-02-05 13:26:00,55.6,43.2,30.10,South,177,1.1,1.1,63,0.00,SCT,,0.00,WeatherDisplay:10.37,2013-02-05 21:26:00,
2013-02-05 13:29:00,55.7,42.9,30.10,SSW,201,3.5,3.5,62,0.00,SCT,,0.00,WeatherDisplay:10.37,2013-02-05 21:29:00,
2013-02-05 13:31:00,55.8,43.0,30.10,SSW,202,4.6,4.6,62,0.00,SCT,,0.00,WeatherDisplay:10.37,2013-02-05 21:31:00,
2013-02-05 13:34:00,56.0,43.2,30.10,SSW,206,6.0,6.0,62,0.00,SCT,,0.00,WeatherDisplay:10.37,2013-02-05 21:34:00,
2013-02-05 13:35:00,56.0,43.2,30.10,South,191,3.5,3.5,62,0.00,SCT,,0.00,WeatherDisplay:10.37,2013-02-05 21:35:00,
2013-02-05 13:37:00,56.1,42.8,30.10,ESE,123,3.5,3.5,61,0.00,SCT,,0.00,WeatherDisplay:10.37,2013-02-05 21:37:00,
2013-02-05 13:39:00,56.2,42.9,30.10,SSW,209,8.1,8.1,61,0.00,SCT,,0.00,WeatherDisplay:10.37,2013-02-05 21:39:00,
2013-02-05 13:40:00,56.1,42.8,30.10,SSW,193,8.1,8.1,61,0.00,SCT,,0.00,WeatherDisplay:10.37,2013-02-05 21:40:00,
2013-02-05 13:41:00,56.1,42.8,30.09,ESE,107,2.3,2.3,61,0.00,SCT,,0.00,WeatherDisplay:10.37,2013-02-05 21:41:00,
2013-02-05 13:42:00,56.0,42.7,30.09,SSE,164,2.3,2.3,61,0.00,SCT,,0.00,WeatherDisplay:10.37,2013-02-05 21:42:00,
2013-02-05 13:44:00,55.9,43.1,30.09,West,260,3.5,3.5,62,0.00,SCT,,0.00,WeatherDisplay:10.37,2013-02-05 21:44:00,
2013-02-05 13:45:00,55.9,43.1,30.09,West,260,3.5,3.5,62,0.00,SCT,,0.00,WeatherDisplay:10.37,2013-02-05 21:45:00,
2013-02-05 13:46:00,55.9,43.1,30.09,SSW,196,4.0,4.0,62,0.00,SCT,,0.00,WeatherDisplay:10.37,2013-02-05 21:46:00,
2013-02-05 13:49:00,55.9,43.1,30.09,SSW,206,5.0,5.0,62,0.00,SCT,,0.00,WeatherDisplay:10.37,2013-02-05 21:49:00,
2013-02-05 13:50:00,55.9,43.1,30.09,SSW,206,3.5,3.5,62,0.00,SCT,,0.00,WeatherDisplay:10.37,2013-02-05 21:50:00,
2013-02-05 13:54:00,56.0,43.2,30.09,SSW,194,3.5,3.5,62,0.00,SCT,,0.00,WeatherDisplay:10.37,2013-02-05 21:54:00,
2013-02-05 13:55:00,56.0,43.2,30.09,SSE,161,3.5,3.5,62,0.00,SCT,,0.00,WeatherDisplay:10.37,2013-02-05 21:55:00,
2013-02-05 14:00:00,56.0,42.7,30.09,SSW,206,5.8,0.0,61,0.00,SCT,,0.00,WeatherDisplay:10.37,2013-02-05 22:00:00,
2013-02-05 14:02:00,56.0,43.2,30.09,SW,223,6.0,6.0,62,0.00,SCT,,0.00,WeatherDisplay:10.37,2013-02-05 22:02:00,
2013-02-05 14:03:00,56.0,42.7,30.09,SSW,198,3.5,3.5,61,0.00,SCT,,0.00,WeatherDisplay:10.37,2013-02-05 22:03:00,
2013-02-05 14:05:00,56.0,43.2,30.09,SSW,201,3.5,3.5,62,0.00,SCT,,0.00,WeatherDisplay:10.37,2013-02-05 22:05:00,
2013-02-05 14:08:00,56.1,43.3,30.09,ENE,67,4.6,4.6,62,0.00,SCT,,0.00,WeatherDisplay:10.37,2013-02-05 22:08:00,
2013-02-05 14:10:00,56.2,43.3,30.09,WSW,238,4.6,4.6,62,0.00,SCT,,0.00,WeatherDisplay:10.37,2013-02-05 22:10:00,
2013-02-05 14:13:00,56.2,43.3,30.09,WSW,256,3.5,3.5,62,0.00,SCT,,0.00,WeatherDisplay:10.37,2013-02-05 22:13:00,
2013-02-05 14:15:00,56.2,42.9,30.09,SW,222,4.0,4.0,61,0.00,SCT,,0.00,WeatherDisplay:10.37,2013-02-05 22:15:00,
2013-02-05 14:16:00,56.2,43.3,30.09,SW,230,3.5,3.5,62,0.00,SCT,,0.00,WeatherDisplay:10.37,2013-02-05 22:16:00,
2013-02-05 14:18:00,56.2,43.3,30.09,SW,221,5.8,5.8,62,0.00,SCT,,0.00,WeatherDisplay:10.37,2013-02-05 22:18:00,
2013-02-05 14:21:00,56.3,43.4,30.09,SSW,205,4.6,4.6,62,0.00,SCT,,0.00,WeatherDisplay:10.37,2013-02-05 22:21:00,
2013-02-05 14:22:00,56.3,43.4,30.09,WSW,245,3.5,3.5,62,0.00,SCT,,0.00,WeatherDisplay:10.37,2013-02-05 22:22:00,
2013-02-05 14:23:00,56.3,43.4,30.09,South,174,3.5,3.5,62,0.00,SCT,,0.00,WeatherDisplay:10.37,2013-02-05 22:23:00,
2013-02-05 14:24:00,56.4,43.1,30.09,SSW,212,3.5,3.5,61,0.00,SCT,,0.00,WeatherDisplay:10.37,2013-02-05 22:24:00,
2013-02-05 14:26:00,56.4,43.1,30.09,South,189,7.0,7.0,61,0.00,SCT,,0.00,WeatherDisplay:10.37,2013-02-05 22:26:00,
2013-02-05 14:27:00,56.4,43.1,30.09,SW,230,6.9,6.9,61,0.00,SCT,,0.00,WeatherDisplay:10.37,2013-02-05 22:27:00,
2013-02-05 14:29:00,56.4,43.1,30.09,SE,134,4.6,4.6,61,0.00,SCT,,0.00,WeatherDisplay:10.37,2013-02-05 22:29:00,
2013-02-05 14:30:00,56.4,43.1,30.09,West,267,4.6,4.6,61,0.00,SCT,,0.00,WeatherDisplay:10.37,2013-02-05 22:30:00,
2013-02-05 14:31:00,56.4,43.1,30.09,SW,218,6.0,6.0,61,0.00,SCT,,0.00,WeatherDisplay:10.37,2013-02-05 22:31:00,
2013-02-05 14:32:00,56.4,43.1,30.09,SSW,202,7.0,7.0,61,0.00,SCT,,0.00,WeatherDisplay:10.37,2013-02-05 22:32:00,
2013-02-05 14:35:00,56.4,43.1,30.09,SW,218,1.0,8.0,61,0.00,SCT,,0.00,WeatherDisplay:10.37,2013-02-05 22:35:00,
2013-02-05 14:37:00,56.5,43.6,30.08,SW,221,9.2,9.2,62,0.00,SCT,,0.00,WeatherDisplay:10.37,2013-02-05 22:37:00,
2013-02-05 14:38:00,56.6,43.3,30.09,SSW,197,8.1,8.1,61,0.00,SCT,,0.00,WeatherDisplay:10.37,2013-02-05 22:38:00,
2013-02-05 14:41:00,56.6,43.7,30.09,South,191,6.9,6.9,62,0.00,SCT,,0.00,WeatherDisplay:10.37,2013-02-05 22:41:00,
2013-02-05 14:43:00,56.6,43.3,30.09,SSW,204,9.0,9.0,61,0.00,SCT,,0.00,WeatherDisplay:10.37,2013-02-05 22:43:00,
2013-02-05 14:45:00,56.6,43.3,30.09,South,190,1.0,9.0,61,0.00,SCT,,0.00,WeatherDisplay:10.37,2013-02-05 22:45:00,
2013-02-05 14:46:00,56.6,43.3,30.09,SSW,192,3.5,3.5,61,0.00,SCT,,0.00,WeatherDisplay:10.37,2013-02-05 22:46:00,
2013-02-05 14:48:00,56.6,43.3,30.09,SW,232,3.5,3.5,61,0.00,SCT,,0.00,WeatherDisplay:10.37,2013-02-05 22:48:00,
2013-02-05 14:50:00,56.5,43.6,30.09,SE,146,4.0,4.0,62,0.00,SCT,,0.00,WeatherDisplay:10.37,2013-02-05 22:50:00,
2013-02-05 14:51:00,56.5,43.6,30.09,South,172,6.0,6.0,62,0.00,SCT,,0.00,WeatherDisplay:10.37,2013-02-05 22:51:00,
2013-02-05 14:56:00,56.5,43.2,30.09,SW,218,4.6,4.6,61,0.00,SCT,,0.00,WeatherDisplay:10.37,2013-02-05 22:56:00,
2013-02-05 14:57:00,56.4,43.5,30.09,SSE,148,2.3,2.3,62,0.00,SCT,,0.00,WeatherDisplay:10.37,2013-02-05 22:57:00,
2013-02-05 15:01:00,56.4,43.5,30.09,WNW,300,2.3,2.3,62,0.00,SCT,,0.00,WeatherDisplay:10.37,2013-02-05 23:01:00,
2013-02-05 15:02:00,56.4,43.5,30.09,SW,230,2.3,2.3,62,0.00,SCT,,0.00,WeatherDisplay:10.37,2013-02-05 23:02:00,
2013-02-05 15:05:00,56.3,43.4,30.09,SSW,197,11.5,11.5,62,0.00,SCT,,0.00,WeatherDisplay:10.37,2013-02-05 23:05:00,
2013-02-05 15:06:00,56.3,43.4,30.09,SSW,193,9.2,9.2,62,0.00,SCT,,0.00,WeatherDisplay:10.37,2013-02-05 23:06:00,
2013-02-05 15:07:00,56.2,43.3,30.09,SSW,197,9.2,9.2,62,0.00,SCT,,0.00,WeatherDisplay:10.37,2013-02-05 23:07:00,
2013-02-05 15:08:00,56.2,43.8,30.09,SW,224,3.5,3.5,63,0.00,SCT,,0.00,WeatherDisplay:10.37,2013-02-05 23:08:00,
2013-02-05 15:10:00,56.2,43.3,30.09,SSE,158,4.0,4.0,62,0.00,SCT,,0.00,WeatherDisplay:10.37,2013-02-05 23:10:00,
2013-02-05 15:11:00,56.1,43.7,30.09,SW,217,5.8,5.8,63,0.00,SCT,,0.00,WeatherDisplay:10.37,2013-02-05 23:11:00,
2013-02-05 15:12:00,56.1,43.7,30.09,SW,217,6.0,6.0,63,0.00,SCT,,0.00,WeatherDisplay:10.37,2013-02-05 23:12:00,
2013-02-05 15:14:00,56.1,43.7,30.09,SW,219,6.9,6.9,63,0.00,SCT,,0.00,WeatherDisplay:10.37,2013-02-05 23:14:00,
2013-02-05 15:15:00,56.1,43.7,30.09,SW,224,4.6,4.6,63,0.00,SCT,,0.00,WeatherDisplay:10.37,2013-02-05 23:15:00,
2013-02-05 15:16:00,56.1,43.7,30.09,SW,214,3.5,3.5,63,0.00,SCT,,0.00,WeatherDisplay:10.37,2013-02-05 23:16:00,
2013-02-05 15:18:00,56.0,43.6,30.09,WSW,251,6.9,6.9,63,0.00,SCT,,0.00,WeatherDisplay:10.37,2013-02-05 23:18:00,
2013-02-05 15:19:00,56.1,43.7,30.10,WSW,245,3.5,3.5,63,0.00,SCT,,0.00,WeatherDisplay:10.37,2013-02-05 23:19:00,
2013-02-05 15:20:00,56.1,43.7,30.09,West,263,3.5,3.5,63,0.00,SCT,,0.00,WeatherDisplay:10.37,2013-02-05 23:20:00,
2013-02-05 15:21:00,56.1,43.7,30.09,West,270,3.5,3.5,63,0.00,SCT,,0.00,WeatherDisplay:10.37,2013-02-05 23:21:00,
2013-02-05 15:23:00,56.2,43.8,30.10,SSW,193,4.6,4.6,63,0.00,SCT,,0.00,WeatherDisplay:10.37,2013-02-05 23:23:00,
2013-02-05 15:24:00,56.2,43.8,30.10,SW,230,3.5,3.5,63,0.00,SCT,,0.00,WeatherDisplay:10.37,2013-02-05 23:24:00,
2013-02-05 15:26:00,56.4,44.0,30.10,SSW,211,2.3,2.3,63,0.00,SCT,,0.00,WeatherDisplay:10.37,2013-02-05 23:26:00,
2013-02-05 15:27:00,56.4,44.0,30.10,SW,234,3.5,3.5,63,0.00,SCT,,0.00,WeatherDisplay:10.37,2013-02-05 23:27:00,
2013-02-05 15:28:00,56.4,44.0,30.10,SSW,203,4.0,4.0,63,0.00,SCT,,0.00,WeatherDisplay:10.37,2013-02-05 23:28:00,
2013-02-05 15:29:00,56.5,44.0,30.10,SSE,157,3.5,3.5,63,0.00,SCT,,0.00,WeatherDisplay:10.37,2013-02-05 23:29:00,
2013-02-05 15:32:00,56.5,44.0,30.10,WSW,240,3.5,3.5,63,0.00,SCT,,0.00,WeatherDisplay:10.37,2013-02-05 23:32:00,
2013-02-05 15:33:00,56.5,43.6,30.10,SE,143,3.5,3.5,62,0.00,SCT,,0.00,WeatherDisplay:10.37,2013-02-05 23:33:00,
2013-02-05 15:34:00,56.5,44.0,30.10,WSW,247,3.5,3.5,63,0.00,SCT,,0.00,WeatherDisplay:10.37,2013-02-05 23:34:00,
2013-02-05 15:37:00,56.5,44.0,30.10,South,190,3.5,3.5,63,0.00,SCT,,0.00,WeatherDisplay:10.37,2013-02-05 23:37:00,
2013-02-05 15:38:00,56.5,44.0,30.10,South,183,1.1,1.1,63,0.00,SCT,,0.00,WeatherDisplay:10.37,2013-02-05 23:38:00,
2013-02-05 15:41:00,56.5,44.0,30.10,WSW,241,3.5,3.5,63,0.00,SCT,,0.00,WeatherDisplay:10.37,2013-02-05 23:41:00,
2013-02-05 15:42:00,56.4,44.0,30.10,WSW,241,1.1,1.1,63,0.00,SCT,,0.00,WeatherDisplay:10.37,2013-02-05 23:42:00,
2013-02-05 15:43:00,56.4,44.0,30.10,WSW,241,0.0,0.0,63,0.00,SCT,,0.00,WeatherDisplay:10.37,2013-02-05 23:43:00,
2013-02-05 15:44:00,56.4,44.0,30.10,SSW,210,2.0,0.0,63,0.00,SCT,,0.00,WeatherDisplay:10.37,2013-02-05 23:44:00,
2013-02-05 15:46:00,56.4,44.0,30.10,South,182,5.0,5.0,63,0.00,SCT,,0.00,WeatherDisplay:10.37,2013-02-05 23:46:00,
2013-02-05 15:47:00,56.3,43.9,30.10,SW,228,5.8,5.8,63,0.00,SCT,,0.00,WeatherDisplay:10.37,2013-02-05 23:47:00,
2013-02-05 15:48:00,56.3,43.9,30.10,South,185,3.5,3.5,63,0.00,SCT,,0.00,WeatherDisplay:10.37,2013-02-05 23:48:00,
2013-02-05 15:51:00,56.3,44.3,30.10,SSW,213,3.5,3.5,64,0.00,SCT,,0.00,WeatherDisplay:10.37,2013-02-05 23:51:00,
2013-02-05 15:52:00,56.3,44.3,30.10,WNW,286,3.5,3.5,64,0.00,SCT,,0.00,WeatherDisplay:10.37,2013-02-05 23:52:00,
2013-02-05 15:54:00,56.3,43.9,30.10,SSW,201,2.3,2.3,63,0.00,SCT,,0.00,WeatherDisplay:10.37,2013-02-05 23:54:00,
2013-02-05 15:55:00,56.3,43.9,30.10,WSW,237,2.0,6.0,63,0.00,SCT,,0.00,WeatherDisplay:10.37,2013-02-05 23:55:00,
2013-02-05 15:57:00,56.2,44.2,30.10,SW,231,5.0,5.0,64,0.00,SCT,,0.00,WeatherDisplay:10.37,2013-02-05 23:57:00,
2013-02-05 15:59:00,56.1,44.1,30.10,South,178,4.6,4.6,64,0.00,SCT,,0.00,WeatherDisplay:10.37,2013-02-05 23:59:00,
2013-02-05 16:00:00,56.1,44.1,30.10,South,178,3.5,3.5,64,0.00,SCT,,0.00,WeatherDisplay:10.37,2013-02-06 00:00:00,
2013-02-05 16:02:00,56.1,44.1,30.10,West,262,3.5,3.5,64,0.00,SCT,,0.00,WeatherDisplay:10.37,2013-02-06 00:02:00,
2013-02-05 16:05:00,56.0,44.0,30.10,SSW,206,1.0,5.0,64,0.00,SCT,,0.00,WeatherDisplay:10.37,2013-02-06 00:05:00,
2013-02-05 16:07:00,55.9,44.3,30.10,SSW,202,3.5,3.5,65,0.00,SCT,,0.00,WeatherDisplay:10.37,2013-02-06 00:07:00,
2013-02-05 16:10:00,55.9,44.3,30.10,West,259,3.5,3.5,65,0.00,SCT,,0.00,WeatherDisplay:10.37,2013-02-06 00:10:00,
2013-02-05 16:12:00,55.9,44.3,30.10,SW,220,3.5,3.5,65,0.00,SCT,,0.00,WeatherDisplay:10.37,2013-02-06 00:12:00,
2013-02-05 16:15:00,55.8,44.2,30.10,SSW,206,2.3,2.3,65,0.00,SCT,,0.00,WeatherDisplay:10.37,2013-02-06 00:15:00,
2013-02-05 16:16:00,55.7,44.1,30.10,SSW,206,2.3,2.3,65,0.00,SCT,,0.00,WeatherDisplay:10.37,2013-02-06 00:16:00,
2013-02-05 16:17:00,55.6,44.0,30.10,South,185,2.3,2.3,65,0.00,SCT,,0.00,WeatherDisplay:10.37,2013-02-06 00:17:00,
2013-02-05 16:18:00,55.6,44.0,30.10,SSW,196,1.1,1.1,65,0.00,SCT,,0.00,WeatherDisplay:10.37,2013-02-06 00:18:00,
2013-02-05 16:20:00,55.5,44.3,30.11,SSW,195,2.3,2.3,66,0.00,SCT,,0.00,WeatherDisplay:10.37,2013-02-06 00:20:00,
2013-02-05 16:23:00,55.3,44.1,30.10,SSE,159,3.5,3.5,66,0.00,SCT,,0.00,WeatherDisplay:10.37,2013-02-06 00:23:00,
2013-02-05 16:25:00,55.3,44.1,30.10,SSE,158,3.5,0.0,66,0.00,SCT,,0.00,WeatherDisplay:10.37,2013-02-06 00:25:00,
2013-02-05 16:27:00,55.2,44.4,30.10,SSW,194,4.0,4.0,67,0.00,SCT,,0.00,WeatherDisplay:10.37,2013-02-06 00:27:00,
2013-02-05 16:28:00,55.1,43.9,30.10,SSW,209,3.5,3.5,66,0.00,SCT,,0.00,WeatherDisplay:10.37,2013-02-06 00:28:00,
2013-02-05 16:30:00,55.1,44.3,30.10,SSW,205,0.0,4.0,67,0.00,SCT,,0.00,WeatherDisplay:10.37,2013-02-06 00:30:00,
2013-02-05 16:33:00,55.0,44.2,30.10,South,181,3.5,3.5,67,0.00,SCT,,0.00,WeatherDisplay:10.37,2013-02-06 00:33:00,
2013-02-05 16:35:00,55.0,44.2,30.10,SW,217,0.0,3.0,67,0.00,SCT,,0.00,WeatherDisplay:10.37,2013-02-06 00:35:00,
2013-02-05 16:39:00,54.8,44.4,30.10,WSW,255,5.8,5.8,68,0.00,SCT,,0.00,WeatherDisplay:10.37,2013-02-06 00:39:00,
2013-02-05 16:40:00,54.7,44.0,30.10,SSW,193,4.6,4.6,67,0.00,SCT,,0.00,WeatherDisplay:10.37,2013-02-06 00:40:00,
2013-02-05 16:43:00,54.6,43.9,30.10,West,259,4.6,4.6,67,0.00,SCT,,0.00,WeatherDisplay:10.37,2013-02-06 00:43:00,
2013-02-05 16:44:00,54.6,44.2,30.10,West,264,2.3,2.3,68,0.00,SCT,,0.00,WeatherDisplay:10.37,2013-02-06 00:44:00,
2013-02-05 16:45:00,54.6,44.2,30.10,West,264,0.0,0.0,68,0.00,SCT,,0.00,WeatherDisplay:10.37,2013-02-06 00:45:00,
2013-02-05 16:48:00,54.5,44.2,30.10,SW,236,3.5,3.5,68,0.00,SCT,,0.00,WeatherDisplay:10.37,2013-02-06 00:48:00,
2013-02-05 16:50:00,54.5,44.2,30.10,SSE,158,2.3,2.3,68,0.00,SCT,,0.00,WeatherDisplay:10.37,2013-02-06 00:50:00,
2013-02-05 16:54:00,54.5,44.5,30.10,South,173,1.1,1.1,69,0.00,SCT,,0.00,WeatherDisplay:10.37,2013-02-06 00:54:00,
2013-02-05 16:55:00,54.5,44.2,30.10,ESE,120,4.0,4.0,68,0.00,SCT,,0.00,WeatherDisplay:10.37,2013-02-06 00:55:00,
2013-02-05 16:59:00,54.3,44.0,30.11,WSW,252,2.3,2.3,68,0.00,SCT,,0.00,WeatherDisplay:10.37,2013-02-06 00:59:00,
2013-02-05 17:00:00,54.3,44.0,30.10,South,184,9.2,9.2,68,0.00,SCT,,0.00,WeatherDisplay:10.37,2013-02-06 01:00:00,
2013-02-05 17:01:00,54.3,44.3,30.11,South,177,9.2,9.2,69,0.00,SCT,,0.00,WeatherDisplay:10.37,2013-02-06 01:01:00,
2013-02-05 17:04:00,54.2,44.2,30.11,SSW,201,3.5,3.5,69,0.00,SCT,,0.00,WeatherDisplay:10.37,2013-02-06 01:04:00,
2013-02-05 17:05:00,54.2,44.2,30.11,SSW,211,4.6,4.6,69,0.00,SCT,,0.00,WeatherDisplay:10.37,2013-02-06 01:05:00,
2013-02-05 17:07:00,54.1,44.2,30.11,SSW,211,4.6,4.6,69,0.00,SCT,,0.00,WeatherDisplay:10.37,2013-02-06 01:07:00,
2013-02-05 17:09:00,54.0,44.1,30.11,WSW,239,2.3,2.3,69,0.00,SCT,,0.00,WeatherDisplay:10.37,2013-02-06 01:09:00,
2013-02-05 17:10:00,54.0,44.1,30.11,WSW,249,4.6,4.6,69,0.00,SCT,,0.00,WeatherDisplay:10.37,2013-02-06 01:10:00,
2013-02-05 17:11:00,54.0,44.1,30.11,WSW,250,4.6,4.6,69,0.00,SCT,,0.00,WeatherDisplay:10.37,2013-02-06 01:11:00,
2013-02-05 17:12:00,54.0,44.1,30.11,WSW,247,3.5,3.5,69,0.00,SCT,,0.00,WeatherDisplay:10.37,2013-02-06 01:12:00,
2013-02-05 17:15:00,53.8,44.2,30.10,SSW,195,2.3,2.3,70,0.00,SCT,,0.00,WeatherDisplay:10.37,2013-02-06 01:15:00,
2013-02-05 17:16:00,53.8,44.2,30.10,SSW,193,3.5,3.5,70,0.00,SCT,,0.00,WeatherDisplay:10.37,2013-02-06 01:16:00,
2013-02-05 17:17:00,53.8,44.2,30.10,SW,235,3.5,3.5,70,0.00,SCT,,0.00,WeatherDisplay:10.37,2013-02-06 01:17:00,
2013-02-05 17:21:00,53.7,44.1,30.10,South,182,4.0,4.0,70,0.00,SCT,,0.00,WeatherDisplay:10.37,2013-02-06 01:21:00,
2013-02-05 17:22:00,53.6,44.0,30.10,SSW,202,3.5,3.5,70,0.00,SCT,,0.00,WeatherDisplay:10.37,2013-02-06 01:22:00,
2013-02-05 17:26:00,53.4,44.2,30.10,South,175,2.3,2.3,71,0.00,SCT,,0.00,WeatherDisplay:10.37,2013-02-06 01:26:00,
2013-02-05 17:27:00,53.4,44.2,30.10,South,188,4.0,4.0,71,0.00,SCT,,0.00,WeatherDisplay:10.37,2013-02-06 01:27:00,
2013-02-05 17:29:00,53.4,44.2,30.10,SSE,167,3.5,3.5,71,0.00,SCT,,0.00,WeatherDisplay:10.37,2013-02-06 01:29:00,
2013-02-05 17:31:00,53.3,44.1,30.10,SSE,165,3.5,3.5,71,0.00,SCT,,0.00,WeatherDisplay:10.37,2013-02-06 01:31:00,
2013-02-05 17:32:00,53.3,44.1,30.10,South,180,3.5,3.5,71,0.00,SCT,,0.00,WeatherDisplay:10.37,2013-02-06 01:32:00,
2013-02-05 17:34:00,53.3,44.1,30.10,SE,132,4.0,4.0,71,0.00,SCT,,0.00,WeatherDisplay:10.37,2013-02-06 01:34:00,
2013-02-05 17:36:00,53.2,44.0,30.10,SW,225,3.5,3.5,71,0.00,SCT,,0.00,WeatherDisplay:10.37,2013-02-06 01:36:00,
2013-02-05 17:37:00,53.2,44.0,30.11,SW,225,1.1,0.0,71,0.00,SCT,,0.00,WeatherDisplay:10.37,2013-02-06 01:37:00,
2013-02-05 17:39:00,53.2,44.0,30.11,SSW,194,3.5,3.5,71,0.00,SCT,,0.00,WeatherDisplay:10.37,2013-02-06 01:39:00,
2013-02-05 17:40:00,53.2,44.0,30.11,SSW,194,2.0,5.0,71,0.00,SCT,,0.00,WeatherDisplay:10.37,2013-02-06 01:40:00,
2013-02-05 17:42:00,53.1,44.3,30.11,West,267,3.5,3.5,72,0.00,SCT,,0.00,WeatherDisplay:10.37,2013-02-06 01:42:00,
2013-02-05 17:44:00,53.0,44.2,30.11,SSW,202,1.1,1.1,72,0.00,SCT,,0.00,WeatherDisplay:10.37,2013-02-06 01:44:00,
2013-02-05 17:45:00,53.0,43.8,30.11,SW,214,1.0,5.0,71,0.00,SCT,,0.00,WeatherDisplay:10.37,2013-02-06 01:45:00,
2013-02-05 17:47:00,52.9,44.1,30.10,South,190,2.0,2.0,72,0.00,SCT,,0.00,WeatherDisplay:10.37,2013-02-06 01:47:00,
2013-02-05 17:49:00,52.9,44.1,30.10,South,183,3.5,3.5,72,0.00,SCT,,0.00,WeatherDisplay:10.37,2013-02-06 01:49:00,
2013-02-05 17:50:00,52.9,44.1,30.11,SSW,200,3.5,3.5,72,0.00,SCT,,0.00,WeatherDisplay:10.37,2013-02-06 01:50:00,
2013-02-05 17:53:00,52.8,44.0,30.11,SSW,201,4.0,4.0,72,0.00,SCT,,0.00,WeatherDisplay:10.37,2013-02-06 01:53:00,
2013-02-05 17:54:00,52.8,44.0,30.11,SSW,204,3.5,3.5,72,0.00,SCT,,0.00,WeatherDisplay:10.37,2013-02-06 01:54:00,
2013-02-05 17:55:00,52.8,44.0,30.11,SSW,200,1.0,4.0,72,0.00,SCT,,0.00,WeatherDisplay:10.37,2013-02-06 01:55:00,
2013-02-05 17:58:00,52.6,44.2,30.11,SW,223,3.5,3.5,73,0.00,SCT,,0.00,WeatherDisplay:10.37,2013-02-06 01:58:00,
2013-02-05 17:59:00,52.6,44.2,30.11,South,185,3.5,3.5,73,0.00,SCT,,0.00,WeatherDisplay:10.37,2013-02-06 01:59:00,
2013-02-05 18:00:00,52.6,44.2,30.10,SSW,196,1.0,4.0,73,0.00,SCT,,0.00,WeatherDisplay:10.37,2013-02-06 02:00:00,
2013-02-05 18:01:00,52.6,44.2,30.11,South,185,3.5,3.5,73,0.00,SCT,,0.00,WeatherDisplay:10.37,2013-02-06 02:01:00,
2013-02-05 18:04:00,52.5,44.1,30.11,South,187,3.0,3.0,73,0.00,SCT,,0.00,WeatherDisplay:10.37,2013-02-06 02:04:00,
2013-02-05 18:05:00,52.5,44.1,30.11,SSW,198,1.0,4.0,73,0.00,SCT,,0.00,WeatherDisplay:10.37,2013-02-06 02:05:00,
2013-02-05 18:06:00,52.5,44.1,30.11,SW,225,3.5,3.5,73,0.00,SCT,,0.00,WeatherDisplay:10.37,2013-02-06 02:06:00,
2013-02-05 18:07:00,52.4,44.0,30.11,SW,225,0.0,0.0,73,0.00,SCT,,0.00,WeatherDisplay:10.37,2013-02-06 02:07:00,
2013-02-05 18:10:00,52.4,44.4,30.11,SSW,192,4.6,4.6,74,0.00,SCT,,0.00,WeatherDisplay:10.37,2013-02-06 02:10:00,
2013-02-05 18:11:00,52.3,43.9,30.10,SSW,192,4.6,0.0,73,0.00,SCT,,0.00,WeatherDisplay:10.37,2013-02-06 02:11:00,
2013-02-05 18:12:00,52.3,43.9,30.10,SSW,203,2.3,2.3,73,0.00,SCT,,0.00,WeatherDisplay:10.37,2013-02-06 02:12:00,
2013-02-05 18:15:00,52.2,44.2,30.10,WSW,254,3.0,3.0,74,0.00,SCT,,0.00,WeatherDisplay:10.37,2013-02-06 02:15:00,
2013-02-05 18:16:00,52.1,44.1,30.11,SW,236,3.5,3.5,74,0.00,SCT,,0.00,WeatherDisplay:10.37,2013-02-06 02:16:00,
2013-02-05 18:17:00,52.1,44.1,30.11,South,191,2.3,2.3,74,0.00,SCT,,0.00,WeatherDisplay:10.37,2013-02-06 02:17:00,
2013-02-05 18:20:00,52.1,44.0,30.11,South,188,1.0,4.0,74,0.00,SCT,,0.00,WeatherDisplay:10.37,2013-02-06 02:20:00,
2013-02-05 18:21:00,52.0,44.0,30.10,SSE,152,3.5,3.5,74,0.00,SCT,,0.00,WeatherDisplay:10.37,2013-02-06 02:21:00,
2013-02-05 18:22:00,52.0,44.0,30.11,SSW,200,2.3,2.3,74,0.00,SCT,,0.00,WeatherDisplay:10.37,2013-02-06 02:22:00,
2013-02-05 18:25:00,51.9,43.9,30.10,SSW,194,2.0,6.0,74,0.00,SCT,,0.00,WeatherDisplay:10.37,2013-02-06 02:25:00,
2013-02-05 18:26:00,51.9,43.9,30.11,SSW,194,2.3,2.3,74,0.00,SCT,,0.00,WeatherDisplay:10.37,2013-02-06 02:26:00,
2013-02-05 18:27:00,51.9,44.2,30.11,SSW,195,3.5,3.5,75,0.00,SCT,,0.00,WeatherDisplay:10.37,2013-02-06 02:27:00,
2013-02-05 18:30:00,51.8,44.1,30.11,SSW,193,0.0,5.0,75,0.00,SCT,,0.00,WeatherDisplay:10.37,2013-02-06 02:30:00,
2013-02-05 18:31:00,51.8,44.1,30.11,East,99,3.5,3.5,75,0.00,SCT,,0.00,WeatherDisplay:10.37,2013-02-06 02:31:00,
2013-02-05 18:35:00,51.6,43.9,30.11,SSW,209,3.5,3.5,75,0.00,SCT,,0.00,WeatherDisplay:10.37,2013-02-06 02:35:00,
2013-02-05 18:36:00,51.6,43.9,30.11,SSW,207,6.0,6.0,75,0.00,SCT,,0.00,WeatherDisplay:10.37,2013-02-06 02:36:00,
2013-02-05 18:37:00,51.6,44.3,30.11,SW,217,5.8,5.8,76,0.00,SCT,,0.00,WeatherDisplay:10.37,2013-02-06 02:37:00,
2013-02-05 18:39:00,51.6,43.9,30.11,South,169,3.5,3.5,75,0.00,SCT,,0.00,WeatherDisplay:10.37,2013-02-06 02:39:00,
2013-02-05 18:40:00,51.5,43.8,30.11,WSW,247,2.3,2.3,75,0.00,SCT,,0.00,WeatherDisplay:10.37,2013-02-06 02:40:00,
2013-02-05 18:41:00,51.5,44.2,30.11,SSW,199,3.5,3.5,76,0.00,SCT,,0.00,WeatherDisplay:10.37,2013-02-06 02:41:00,
2013-02-05 18:42:00,51.5,43.8,30.11,West,279,2.0,2.0,75,0.00,SCT,,0.00,WeatherDisplay:10.37,2013-02-06 02:42:00,
2013-02-05 18:44:00,51.4,44.1,30.11,SSW,199,4.6,4.6,76,0.00,SCT,,0.00,WeatherDisplay:10.37,2013-02-06 02:44:00,
2013-02-05 18:45:00,51.4,44.1,30.11,SSW,210,4.6,4.6,76,0.00,SCT,,0.00,WeatherDisplay:10.37,2013-02-06 02:45:00,
2013-02-05 18:47:00,51.3,44.0,30.11,South,188,3.5,3.5,76,0.00,SCT,,0.00,WeatherDisplay:10.37,2013-02-06 02:47:00,
2013-02-05 18:48:00,51.3,44.0,30.11,West,274,3.5,3.5,76,0.00,SCT,,0.00,WeatherDisplay:10.37,2013-02-06 02:48:00,
2013-02-05 18:49:00,51.3,44.0,30.11,SSW,205,3.5,3.5,76,0.00,SCT,,0.00,WeatherDisplay:10.37,2013-02-06 02:49:00,
2013-02-05 18:53:00,51.1,44.1,30.11,South,174,5.0,5.0,77,0.00,SCT,,0.00,WeatherDisplay:10.37,2013-02-06 02:53:00,
2013-02-05 18:54:00,51.1,44.1,30.11,SSW,208,4.6,4.6,77,0.00,SCT,,0.00,WeatherDisplay:10.37,2013-02-06 02:54:00,
2013-02-05 18:58:00,51.1,44.1,30.11,SSW,211,5.8,5.8,77,0.00,SCT,,0.00,WeatherDisplay:10.37,2013-02-06 02:58:00,
2013-02-05 18:59:00,51.1,44.1,30.11,SSW,211,3.5,3.5,77,0.00,SCT,,0.00,WeatherDisplay:10.37,2013-02-06 02:59:00,
2013-02-05 19:00:00,51.1,44.1,30.11,SSW,205,1.0,6.0,77,0.00,SCT,,0.00,WeatherDisplay:10.37,2013-02-06 03:00:00,
2013-02-05 19:02:00,51.1,44.1,30.11,SSW,203,9.2,9.2,77,0.00,SCT,,0.00,WeatherDisplay:10.37,2013-02-06 03:02:00,
2013-02-05 19:03:00,51.1,44.1,30.11,South,173,5.8,5.8,77,0.00,SCT,,0.00,WeatherDisplay:10.37,2013-02-06 03:03:00,
2013-02-05 19:04:00,51.1,44.1,30.11,SSW,192,5.8,5.8,77,0.00,SCT,,0.00,WeatherDisplay:10.37,2013-02-06 03:04:00,
2013-02-05 19:05:00,51.1,44.1,30.11,South,191,1.0,9.0,77,0.00,SCT,,0.00,WeatherDisplay:10.37,2013-02-06 03:05:00,
2013-02-05 19:07:00,51.1,44.1,30.11,South,169,4.6,4.6,77,0.00,SCT,,0.00,WeatherDisplay:10.37,2013-02-06 03:07:00,
2013-02-05 19:08:00,51.1,44.1,30.11,WSW,251,3.5,3.5,77,0.00,SCT,,0.00,WeatherDisplay:10.37,2013-02-06 03:08:00,
2013-02-05 19:10:00,51.1,44.1,30.11,WNW,295,3.5,3.5,77,0.00,SCT,,0.00,WeatherDisplay:10.37,2013-02-06 03:10:00,
2013-02-05 19:12:00,51.1,44.1,30.11,SSW,194,2.3,2.3,77,0.00,SCT,,0.00,WeatherDisplay:10.37,2013-02-06 03:12:00,
2013-02-05 19:14:00,51.1,44.1,30.11,SSW,194,2.3,2.3,77,0.00,SCT,,0.00,WeatherDisplay:10.37,2013-02-06 03:14:00,
2013-02-05 19:15:00,51.1,44.1,30.12,SSW,196,2.3,2.3,77,0.00,SCT,,0.00,WeatherDisplay:10.37,2013-02-06 03:15:00,
2013-02-05 19:17:00,51.0,43.7,30.12,WSW,257,1.1,1.1,76,0.00,SCT,,0.00,WeatherDisplay:10.37,2013-02-06 03:17:00,
2013-02-05 19:20:00,51.1,44.1,30.11,SW,230,2.0,5.0,77,0.00,SCT,,0.00,WeatherDisplay:10.37,2013-02-06 03:20:00,
2013-02-05 19:23:00,50.9,43.9,30.12,South,176,1.1,1.1,77,0.00,SCT,,0.00,WeatherDisplay:10.37,2013-02-06 03:23:00,
2013-02-05 19:25:00,50.9,43.9,30.11,WSW,246,0.0,2.0,77,0.00,SCT,,0.00,WeatherDisplay:10.37,2013-02-06 03:25:00,
2013-02-05 19:28:00,50.8,43.8,30.12,SSW,207,5.0,5.0,77,0.00,SCT,,0.00,WeatherDisplay:10.37,2013-02-06 03:28:00,
2013-02-05 19:29:00,50.8,43.8,30.12,SW,231,3.5,3.5,77,0.00,SCT,,0.00,WeatherDisplay:10.37,2013-02-06 03:29:00,
2013-02-05 19:30:00,50.8,43.8,30.12,SSW,212,2.3,2.3,77,0.00,SCT,,0.00,WeatherDisplay:10.37,2013-02-06 03:30:00,
2013-02-05 19:33:00,50.8,43.8,30.12,SSE,155,3.0,3.0,77,0.00,SCT,,0.00,WeatherDisplay:10.37,2013-02-06 03:33:00,
2013-02-05 19:35:00,50.8,43.8,30.12,SSW,205,1.0,5.0,77,0.00,SCT,,0.00,WeatherDisplay:10.37,2013-02-06 03:35:00,
2013-02-05 19:36:00,50.8,43.8,30.11,SSW,193,3.5,3.5,77,0.00,SCT,,0.00,WeatherDisplay:10.37,2013-02-06 03:36:00,
2013-02-05 19:38:00,50.8,43.8,30.12,SW,221,4.6,4.6,77,0.00,SCT,,0.00,WeatherDisplay:10.37,2013-02-06 03:38:00,
2013-02-05 19:40:00,50.7,43.8,30.12,West,264,5.8,5.8,77,0.00,SCT,,0.00,WeatherDisplay:10.37,2013-02-06 03:40:00,
2013-02-05 19:42:00,50.7,43.8,30.11,West,261,2.3,2.3,77,0.00,SCT,,0.00,WeatherDisplay:10.37,2013-02-06 03:42:00,
2013-02-05 19:43:00,50.7,43.8,30.12,SW,217,5.0,5.0,77,0.00,SCT,,0.00,WeatherDisplay:10.37,2013-02-06 03:43:00,
2013-02-05 19:45:00,50.7,43.8,30.12,SW,231,5.8,5.8,77,0.00,SCT,,0.00,WeatherDisplay:10.37,2013-02-06 03:45:00,
2013-02-05 19:47:00,50.7,44.1,30.12,SW,225,4.6,4.6,78,0.00,SCT,,0.00,WeatherDisplay:10.37,2013-02-06 03:47:00,
2013-02-05 19:52:00,50.5,43.9,30.12,SW,220,3.5,3.5,78,0.00,SCT,,0.00,WeatherDisplay:10.37,2013-02-06 03:52:00,
2013-02-05 19:53:00,50.5,43.6,30.12,SW,220,3.5,3.5,77,0.00,SCT,,0.00,WeatherDisplay:10.37,2013-02-06 03:53:00,
2013-02-05 19:54:00,50.5,43.6,30.12,SW,219,3.5,3.5,77,0.00,SCT,,0.00,WeatherDisplay:10.37,2013-02-06 03:54:00,
2013-02-05 19:55:00,50.5,43.9,30.12,SW,221,2.0,10.0,78,0.00,SCT,,0.00,WeatherDisplay:10.37,2013-02-06 03:55:00,
2013-02-05 19:57:00,50.4,43.8,30.12,SSW,204,3.5,3.5,78,0.00,SCT,,0.00,WeatherDisplay:10.37,2013-02-06 03:57:00,
2013-02-05 19:58:00,50.4,43.8,30.12,SW,216,3.5,3.5,78,0.00,SCT,,0.00,WeatherDisplay:10.37,2013-02-06 03:58:00,
2013-02-05 20:00:00,50.3,43.7,30.12,SW,221,6.9,6.9,78,0.00,SCT,,0.00,WeatherDisplay:10.37,2013-02-06 04:00:00,
2013-02-05 20:01:00,50.3,43.7,30.12,South,178,3.5,3.5,78,0.00,SCT,,0.00,WeatherDisplay:10.37,2013-02-06 04:01:00,
2013-02-05 20:03:00,50.3,43.7,30.13,WSW,247,2.3,2.3,78,0.00,SCT,,0.00,WeatherDisplay:10.37,2013-02-06 04:03:00,
2013-02-05 20:05:00,50.3,43.7,30.12,West,271,3.5,3.5,78,0.00,SCT,,0.00,WeatherDisplay:10.37,2013-02-06 04:05:00,
2013-02-05 20:07:00,50.2,43.6,30.13,SSW,195,4.6,4.6,78,0.00,SCT,,0.00,WeatherDisplay:10.37,2013-02-06 04:07:00,
2013-02-05 20:08:00,50.2,43.6,30.13,SSW,197,4.6,4.6,78,0.00,SCT,,0.00,WeatherDisplay:10.37,2013-02-06 04:08:00,
2013-02-05 20:10:00,50.1,43.5,30.13,SSW,213,0.0,5.0,78,0.00,SCT,,0.00,WeatherDisplay:10.37,2013-02-06 04:10:00,
2013-02-05 20:12:00,50.0,43.7,30.13,South,186,1.1,0.0,79,0.00,SCT,,0.00,WeatherDisplay:10.37,2013-02-06 04:12:00,
2013-02-05 20:13:00,50.0,43.7,30.13,SSW,207,2.0,2.0,79,0.00,SCT,,0.00,WeatherDisplay:10.37,2013-02-06 04:13:00,
2013-02-05 20:16:00,50.0,43.4,30.13,SSW,200,3.5,3.5,78,0.00,SCT,,0.00,WeatherDisplay:10.37,2013-02-06 04:16:00,
2013-02-05 20:17:00,50.0,43.4,30.13,South,180,4.6,4.6,78,0.00,SCT,,0.00,WeatherDisplay:10.37,2013-02-06 04:17:00,
2013-02-05 20:18:00,50.0,43.7,30.13,South,177,4.6,4.6,79,0.00,SCT,,0.00,WeatherDisplay:10.37,2013-02-06 04:18:00,
2013-02-05 20:21:00,50.0,43.7,30.13,WSW,240,2.3,2.3,79,0.00,SCT,,0.00,WeatherDisplay:10.37,2013-02-06 04:21:00,
2013-02-05 20:22:00,49.9,43.6,30.13,SW,214,3.5,3.5,79,0.00,SCT,,0.00,WeatherDisplay:10.37,2013-02-06 04:22:00,
2013-02-05 20:23:00,49.9,43.6,30.13,SSW,202,3.5,3.5,79,0.00,SCT,,0.00,WeatherDisplay:10.37,2013-02-06 04:23:00,
2013-02-05 20:25:00,49.9,43.6,30.13,SSW,204,2.0,4.0,79,0.00,SCT,,0.00,WeatherDisplay:10.37,2013-02-06 04:25:00,
2013-02-05 20:27:00,49.9,43.6,30.13,West,260,1.1,1.1,79,0.00,SCT,,0.00,WeatherDisplay:10.37,2013-02-06 04:27:00,
2013-02-05 20:28:00,49.9,43.6,30.13,SW,226,1.1,1.1,79,0.00,SCT,,0.00,WeatherDisplay:10.37,2013-02-06 04:28:00,
2013-02-05 20:30:00,49.9,43.6,30.13,SSW,197,5.8,5.8,79,0.00,SCT,,0.00,WeatherDisplay:10.37,2013-02-06 04:30:00,
2013-02-05 20:31:00,49.9,43.6,30.13,SSW,197,5.8,5.8,79,0.00,SCT,,0.00,WeatherDisplay:10.37,2013-02-06 04:31:00,
2013-02-05 20:33:00,49.8,43.5,30.13,SW,224,3.5,3.5,79,0.00,SCT,,0.00,WeatherDisplay:10.37,2013-02-06 04:33:00,
2013-02-05 20:35:00,49.8,43.5,30.13,WSW,249,3.5,3.5,79,0.00,SCT,,0.00,WeatherDisplay:10.37,2013-02-06 04:35:00,
2013-02-05 20:36:00,49.8,43.5,30.14,WSW,239,3.5,3.5,79,0.00,SCT,,0.00,WeatherDisplay:10.37,2013-02-06 04:36:00,
2013-02-05 20:38:00,49.8,43.5,30.13,SSW,202,3.5,3.5,79,0.00,SCT,,0.00,WeatherDisplay:10.37,2013-02-06 04:38:00,
2013-02-05 20:40:00,49.7,43.5,30.14,SSW,201,6.9,6.9,79,0.00,SCT,,0.00,WeatherDisplay:10.37,2013-02-06 04:40:00,
2013-02-05 20:42:00,49.7,43.5,30.14,SW,222,3.0,3.0,79,0.00,SCT,,0.00,WeatherDisplay:10.37,2013-02-06 04:42:00,
2013-02-05 20:45:00,49.7,43.5,30.14,SW,214,2.3,2.3,79,0.00,SCT,,0.00,WeatherDisplay:10.37,2013-02-06 04:45:00,
2013-02-05 20:46:00,49.6,43.4,30.14,WSW,251,3.0,3.0,79,0.00,SCT,,0.00,WeatherDisplay:10.37,2013-02-06 04:46:00,
2013-02-05 20:48:00,49.6,43.4,30.14,WSW,238,3.5,3.5,79,0.00,SCT,,0.00,WeatherDisplay:10.37,2013-02-06 04:48:00,
2013-02-05 20:50:00,49.6,43.4,30.14,SSW,198,3.5,3.5,79,0.00,SCT,,0.00,WeatherDisplay:10.37,2013-02-06 04:50:00,
2013-02-05 20:51:00,49.6,43.4,30.14,SSW,199,3.5,3.5,79,0.00,SCT,,0.00,WeatherDisplay:10.37,2013-02-06 04:51:00,
2013-02-05 20:53:00,49.5,43.3,30.14,SSW,195,3.5,3.5,79,0.00,SCT,,0.00,WeatherDisplay:10.37,2013-02-06 04:53:00,
2013-02-05 20:55:00,49.5,43.3,30.14,SSW,195,1.1,1.1,79,0.00,SCT,,0.00,WeatherDisplay:10.37,2013-02-06 04:55:00,
2013-02-05 20:56:00,49.5,43.3,30.14,SSW,196,2.0,2.0,79,0.00,SCT,,0.00,WeatherDisplay:10.37,2013-02-06 04:56:00,
2013-02-05 20:58:00,49.4,43.2,30.14,SSE,158,3.5,3.5,79,0.00,SCT,,0.00,WeatherDisplay:10.37,2013-02-06 04:58:00,
2013-02-05 21:00:00,49.4,43.2,30.14,SSW,205,0.0,7.0,79,0.00,SCT,,0.00,WeatherDisplay:10.37,2013-02-06 05:00:00,
2013-02-05 21:01:00,49.4,43.2,30.14,SSW,213,2.3,2.3,79,0.00,SCT,,0.00,WeatherDisplay:10.37,2013-02-06 05:01:00,
2013-02-05 21:05:00,49.3,43.1,30.14,SW,215,3.5,3.5,79,0.00,SCT,,0.00,WeatherDisplay:10.37,2013-02-06 05:05:00,
2013-02-05 21:06:00,49.3,43.1,30.14,SW,232,3.5,3.5,79,0.00,SCT,,0.00,WeatherDisplay:10.37,2013-02-06 05:06:00,
2013-02-05 21:11:00,49.2,43.0,30.14,South,188,5.8,5.8,79,0.00,SCT,,0.00,WeatherDisplay:10.37,2013-02-06 05:11:00,
2013-02-05 21:12:00,49.2,43.0,30.14,South,188,2.3,0.0,79,0.00,SCT,,0.00,WeatherDisplay:10.37,2013-02-06 05:12:00,
2013-02-05 21:16:00,49.2,43.0,30.15,SSW,203,3.5,3.5,79,0.00,SCT,,0.00,WeatherDisplay:10.37,2013-02-06 05:16:00,
2013-02-05 21:17:00,49.2,43.0,30.15,SSW,202,3.5,3.5,79,0.00,SCT,,0.00,WeatherDisplay:10.37,2013-02-06 05:17:00,
2013-02-05 21:18:00,49.1,42.9,30.15,SSW,198,3.5,3.5,79,0.00,SCT,,0.00,WeatherDisplay:10.37,2013-02-06 05:18:00,
2013-02-05 21:22:00,49.1,42.9,30.15,West,271,2.3,0.0,79,0.00,SCT,,0.00,WeatherDisplay:10.37,2013-02-06 05:22:00,
2013-02-05 21:23:00,49.1,42.9,30.15,West,271,1.0,0.0,79,0.00,SCT,,0.00,WeatherDisplay:10.37,2013-02-06 05:23:00,
2013-02-05 21:27:00,49.0,42.8,30.15,SW,232,1.0,1.0,79,0.00,SCT,,0.00,WeatherDisplay:10.37,2013-02-06 05:27:00,
2013-02-05 21:28:00,49.0,42.8,30.15,SW,234,2.3,2.3,79,0.00,SCT,,0.00,WeatherDisplay:10.37,2013-02-06 05:28:00,
2013-02-05 21:32:00,48.9,42.7,30.15,SW,234,0.0,0.0,79,0.00,SCT,,0.00,WeatherDisplay:10.37,2013-02-06 05:32:00,
2013-02-05 21:33:00,48.9,42.7,30.15,SW,234,0.0,0.0,79,0.00,SCT,,0.00,WeatherDisplay:10.37,2013-02-06 05:33:00,
2013-02-05 21:35:00,48.9,42.7,30.15,WSW,238,0.0,0.0,79,0.00,SCT,,0.00,WeatherDisplay:10.37,2013-02-06 05:35:00,
2013-02-05 21:38:00,48.8,42.6,30.15,SW,234,0.0,0.0,79,0.00,SCT,,0.00,WeatherDisplay:10.37,2013-02-06 05:38:00,
2013-02-05 21:39:00,48.8,42.6,30.15,SW,234,0.0,0.0,79,0.00,SCT,,0.00,WeatherDisplay:10.37,2013-02-06 05:39:00,
2013-02-05 21:41:00,48.7,42.5,30.15,SW,234,1.0,1.0,79,0.00,SCT,,0.00,WeatherDisplay:10.37,2013-02-06 05:41:00,
2013-02-05 21:43:00,48.7,42.5,30.15,SW,234,1.1,0.0,79,0.00,SCT,,0.00,WeatherDisplay:10.37,2013-02-06 05:43:00,
2013-02-05 21:44:00,48.7,42.5,30.15,SW,234,0.0,0.0,79,0.00,SCT,,0.00,WeatherDisplay:10.37,2013-02-06 05:44:00,
2013-02-05 21:47:00,48.6,42.4,30.16,SW,234,0.0,0.0,79,0.00,SCT,,0.00,WeatherDisplay:10.37,2013-02-06 05:47:00,
2013-02-05 21:49:00,48.6,42.4,30.15,SW,234,0.0,0.0,79,0.00,SCT,,0.00,WeatherDisplay:10.37,2013-02-06 05:49:00,
2013-02-05 21:50:00,48.5,42.3,30.16,SW,234,0.0,0.0,79,0.00,SCT,,0.00,WeatherDisplay:10.37,2013-02-06 05:50:00,
2013-02-05 21:52:00,48.5,42.3,30.15,SW,234,0.0,0.0,79,0.00,SCT,,0.00,WeatherDisplay:10.37,2013-02-06 05:52:00,
2013-02-05 21:54:00,48.4,42.2,30.15,SW,234,0.0,0.0,79,0.00,SCT,,0.00,WeatherDisplay:10.37,2013-02-06 05:54:00,
2013-02-05 21:55:00,48.4,42.2,30.15,SW,234,0.0,0.0,79,0.00,SCT,,0.00,WeatherDisplay:10.37,2013-02-06 05:55:00,
2013-02-05 21:56:00,48.4,42.2,30.16,SW,234,0.0,0.0,79,0.00,SCT,,0.00,WeatherDisplay:10.37,2013-02-06 05:56:00,
2013-02-05 21:57:00,48.3,42.1,30.16,SW,234,0.0,0.0,79,0.00,SCT,,0.00,WeatherDisplay:10.37,2013-02-06 05:57:00,
2013-02-05 21:59:00,48.3,42.1,30.16,SW,234,0.0,0.0,79,0.00,SCT,,0.00,WeatherDisplay:10.37,2013-02-06 05:59:00,
2013-02-05 22:02:00,48.2,42.0,30.15,SW,234,0.0,0.0,79,0.00,SCT,,0.00,WeatherDisplay:10.37,2013-02-06 06:02:00,
2013-02-05 22:03:00,48.2,42.0,30.15,SW,234,0.0,0.0,79,0.00,SCT,,0.00,WeatherDisplay:10.37,2013-02-06 06:03:00,
2013-02-05 22:04:00,48.2,42.0,30.16,SW,234,0.0,0.0,79,0.00,SCT,,0.00,WeatherDisplay:10.37,2013-02-06 06:04:00,
2013-02-05 22:07:00,48.1,41.9,30.16,SW,234,0.0,0.0,79,0.00,SCT,,0.00,WeatherDisplay:10.37,2013-02-06 06:07:00,
2013-02-05 22:08:00,48.1,41.6,30.16,SW,234,0.0,0.0,78,0.00,SCT,,0.00,WeatherDisplay:10.37,2013-02-06 06:08:00,
2013-02-05 22:09:00,48.0,41.5,30.16,SW,234,0.0,0.0,78,0.00,SCT,,0.00,WeatherDisplay:10.37,2013-02-06 06:09:00,
2013-02-05 22:10:00,48.0,41.5,30.16,SW,234,0.0,0.0,78,0.00,SCT,,0.00,WeatherDisplay:10.37,2013-02-06 06:10:00,
2013-02-05 22:13:00,47.9,41.7,30.16,SW,234,0.0,0.0,79,0.00,SCT,,0.00,WeatherDisplay:10.37,2013-02-06 06:13:00,
2013-02-05 22:14:00,47.9,41.4,30.16,SW,234,0.0,0.0,78,0.00,SCT,,0.00,WeatherDisplay:10.37,2013-02-06 06:14:00,
2013-02-05 22:18:00,47.7,41.5,30.16,SW,234,0.0,0.1,79,0.00,SCT,,0.00,WeatherDisplay:10.37,2013-02-06 06:18:00,
2013-02-05 22:19:00,47.7,41.5,30.16,SW,234,1.1,1.1,79,0.00,SCT,,0.00,WeatherDisplay:10.37,2013-02-06 06:19:00,
2013-02-05 22:20:00,47.7,41.5,30.16,SW,234,0.0,1.0,79,0.00,SCT,,0.00,WeatherDisplay:10.37,2013-02-06 06:20:00,
2013-02-05 22:23:00,47.6,41.4,30.15,West,270,0.0,0.0,79,0.00,SCT,,0.00,WeatherDisplay:10.37,2013-02-06 06:23:00,
2013-02-05 22:24:00,47.6,41.4,30.16,West,270,0.0,0.0,79,0.00,SCT,,0.00,WeatherDisplay:10.37,2013-02-06 06:24:00,
2013-02-05 22:25:00,47.6,41.4,30.16,WSW,246,0.0,1.0,79,0.00,SCT,,0.00,WeatherDisplay:10.37,2013-02-06 06:25:00,
2013-02-05 22:26:00,47.5,41.3,30.16,West,270,0.0,0.0,79,0.00,SCT,,0.00,WeatherDisplay:10.37,2013-02-06 06:26:00,
2013-02-05 22:28:00,47.4,41.2,30.16,West,270,1.1,0.0,79,0.00,SCT,,0.00,WeatherDisplay:10.37,2013-02-06 06:28:00,
2013-02-05 22:30:00,47.4,41.5,30.16,West,270,0.0,0.0,80,0.00,SCT,,0.00,WeatherDisplay:10.37,2013-02-06 06:30:00,
2013-02-05 22:31:00,47.4,41.5,30.16,West,270,0.0,0.0,80,0.00,SCT,,0.00,WeatherDisplay:10.37,2013-02-06 06:31:00,
2013-02-05 22:33:00,47.3,41.4,30.16,West,270,0.0,0.0,80,0.00,SCT,,0.00,WeatherDisplay:10.37,2013-02-06 06:33:00,
2013-02-05 22:35:00,47.3,41.1,30.16,West,270,0.0,0.0,79,0.00,SCT,,0.00,WeatherDisplay:10.37,2013-02-06 06:35:00,
2013-02-05 22:36:00,47.2,41.3,30.16,West,270,0.0,0.0,80,0.00,SCT,,0.00,WeatherDisplay:10.37,2013-02-06 06:36:00,
2013-02-05 22:38:00,47.1,41.2,30.16,West,270,0.0,0.0,80,0.00,SCT,,0.00,WeatherDisplay:10.37,2013-02-06 06:38:00,
2013-02-05 22:40:00,47.1,41.2,30.16,West,270,0.0,0.0,80,0.00,SCT,,0.00,WeatherDisplay:10.37,2013-02-06 06:40:00,
2013-02-05 22:41:00,47.1,41.2,30.16,West,270,0.0,0.0,80,0.00,SCT,,0.00,WeatherDisplay:10.37,2013-02-06 06:41:00,
2013-02-05 22:43:00,47.1,41.2,30.16,West,270,0.0,0.0,80,0.00,SCT,,0.00,WeatherDisplay:10.37,2013-02-06 06:43:00,
2013-02-05 22:44:00,47.1,41.2,30.16,West,270,0.0,0.0,80,0.00,SCT,,0.00,WeatherDisplay:10.37,2013-02-06 06:44:00,
2013-02-05 22:46:00,47.0,41.1,30.16,West,270,0.0,0.0,80,0.00,SCT,,0.00,WeatherDisplay:10.37,2013-02-06 06:46:00,
2013-02-05 22:48:00,47.0,41.1,30.16,West,270,0.0,0.0,80,0.00,SCT,,0.00,WeatherDisplay:10.37,2013-02-06 06:48:00,
2013-02-05 22:49:00,47.0,41.1,30.16,West,270,0.0,0.0,80,0.00,SCT,,0.00,WeatherDisplay:10.37,2013-02-06 06:49:00,
2013-02-05 22:52:00,46.9,41.1,30.16,West,270,0.0,0.0,80,0.00,SCT,,0.00,WeatherDisplay:10.37,2013-02-06 06:52:00,
2013-02-05 22:54:00,46.9,41.1,30.16,West,270,0.0,0.0,80,0.00,SCT,,0.00,WeatherDisplay:10.37,2013-02-06 06:54:00,
2013-02-05 22:55:00,46.9,41.1,30.16,West,270,0.0,0.0,80,0.00,SCT,,0.00,WeatherDisplay:10.37,2013-02-06 06:55:00,
2013-02-05 22:57:00,46.9,41.1,30.16,West,270,0.0,0.0,80,0.00,SCT,,0.00,WeatherDisplay:10.37,2013-02-06 06:57:00,
2013-02-05 23:00:00,46.8,41.0,30.16,West,270,0.0,0.0,80,0.00,SCT,,0.00,WeatherDisplay:10.37,2013-02-06 07:00:00,
2013-02-05 23:01:00,46.8,41.0,30.16,West,270,0.0,0.0,80,0.00,SCT,,0.00,WeatherDisplay:10.37,2013-02-06 07:01:00,
2013-02-05 23:02:00,46.7,40.9,30.16,West,270,0.0,0.0,80,0.00,SCT,,0.00,WeatherDisplay:10.37,2013-02-06 07:02:00,
2013-02-05 23:05:00,46.6,40.8,30.16,West,270,0.0,0.0,80,0.00,SCT,,0.00,WeatherDisplay:10.37,2013-02-06 07:05:00,
2013-02-05 23:06:00,46.6,40.8,30.16,West,270,0.0,0.0,80,0.00,SCT,,0.00,WeatherDisplay:10.37,2013-02-06 07:06:00,
2013-02-05 23:07:00,46.6,40.8,30.16,West,270,0.0,0.0,80,0.00,SCT,,0.00,WeatherDisplay:10.37,2013-02-06 07:07:00,
2013-02-05 23:08:00,46.5,40.7,30.16,West,270,0.0,0.0,80,0.00,SCT,,0.00,WeatherDisplay:10.37,2013-02-06 07:08:00,
2013-02-05 23:11:00,46.5,40.7,30.16,South,182,1.1,1.1,80,0.00,SCT,,0.00,WeatherDisplay:10.37,2013-02-06 07:11:00,
2013-02-05 23:12:00,46.4,40.6,30.16,South,182,0.0,0.0,80,0.00,SCT,,0.00,WeatherDisplay:10.37,2013-02-06 07:12:00,
2013-02-05 23:13:00,46.3,40.5,30.16,South,182,0.0,0.0,80,0.00,SCT,,0.00,WeatherDisplay:10.37,2013-02-06 07:13:00,
2013-02-05 23:16:00,46.2,40.4,30.16,South,182,0.0,0.0,80,0.00,SCT,,0.00,WeatherDisplay:10.37,2013-02-06 07:16:00,
2013-02-05 23:17:00,46.2,40.4,30.16,South,182,0.0,0.0,80,0.00,SCT,,0.00,WeatherDisplay:10.37,2013-02-06 07:17:00,
2013-02-05 23:18:00,46.1,40.3,30.16,South,182,0.0,0.0,80,0.00,SCT,,0.00,WeatherDisplay:10.37,2013-02-06 07:18:00,
2013-02-05 23:22:00,46.0,40.2,30.15,South,182,1.0,0.0,80,0.00,SCT,,0.00,WeatherDisplay:10.37,2013-02-06 07:22:00,
2013-02-05 23:23:00,45.9,40.1,30.16,SW,220,1.1,1.1,80,0.00,SCT,,0.00,WeatherDisplay:10.37,2013-02-06 07:23:00,
2013-02-05 23:24:00,45.9,40.1,30.16,SW,222,1.1,0.0,80,0.00,SCT,,0.00,WeatherDisplay:10.37,2013-02-06 07:24:00,
2013-02-05 23:27:00,45.8,40.0,30.16,SW,222,1.1,0.0,80,0.00,SCT,,0.00,WeatherDisplay:10.37,2013-02-06 07:27:00,
2013-02-05 23:28:00,45.8,40.0,30.16,SW,222,0.0,0.0,80,0.00,SCT,,0.00,WeatherDisplay:10.37,2013-02-06 07:28:00,
2013-02-05 23:29:00,45.7,39.9,30.16,SW,222,0.0,0.0,80,0.00,SCT,,0.00,WeatherDisplay:10.37,2013-02-06 07:29:00,
2013-02-05 23:32:00,45.7,39.9,30.16,SW,222,0.0,0.0,80,0.00,SCT,,0.00,WeatherDisplay:10.37,2013-02-06 07:32:00,
2013-02-05 23:33:00,45.6,39.8,30.16,SW,222,0.0,0.0,80,0.00,SCT,,0.00,WeatherDisplay:10.37,2013-02-06 07:33:00,
2013-02-05 23:35:00,45.5,39.7,30.16,SW,222,0.0,0.0,80,0.00,SCT,,0.00,WeatherDisplay:10.37,2013-02-06 07:35:00,
2013-02-05 23:37:00,45.5,40.0,30.16,SW,222,0.0,0.0,81,0.00,SCT,,0.00,WeatherDisplay:10.37,2013-02-06 07:37:00,
2013-02-05 23:38:00,45.5,39.7,30.16,SW,222,0.0,0.0,80,0.00,SCT,,0.00,WeatherDisplay:10.37,2013-02-06 07:38:00,
2013-02-05 23:40:00,45.5,39.7,30.16,SW,222,0.0,0.0,80,0.00,SCT,,0.00,WeatherDisplay:10.37,2013-02-06 07:40:00,
2013-02-05 23:42:00,45.4,39.6,30.16,SW,222,0.0,0.0,80,0.00,SCT,,0.00,WeatherDisplay:10.37,2013-02-06 07:42:00,
2013-02-05 23:43:00,45.4,39.9,30.16,SW,222,0.0,0.0,81,0.00,SCT,,0.00,WeatherDisplay:10.37,2013-02-06 07:43:00,
2013-02-05 23:44:00,45.4,39.6,30.16,SW,222,1.1,1.1,80,0.00,SCT,,0.00,WeatherDisplay:10.37,2013-02-06 07:44:00,
2013-02-05 23:47:00,45.3,39.5,30.16,SW,222,0.0,0.0,80,0.00,SCT,,0.00,WeatherDisplay:10.37,2013-02-06 07:47:00,
2013-02-05 23:48:00,45.2,39.4,30.16,SW,222,0.0,0.0,80,0.00,SCT,,0.00,WeatherDisplay:10.37,2013-02-06 07:48:00,
2013-02-05 23:49:00,45.2,39.4,30.16,SW,222,0.0,0.0,80,0.00,SCT,,0.00,WeatherDisplay:10.37,2013-02-06 07:49:00,
2013-02-05 23:52:00,45.2,39.4,30.16,SW,222,0.0,0.0,80,0.00,SCT,,0.00,WeatherDisplay:10.37,2013-02-06 07:52:00,
2013-02-05 23:53:00,45.2,39.4,30.17,SW,222,0.0,0.0,80,0.00,SCT,,0.00,WeatherDisplay:10.37,2013-02-06 07:53:00,
2013-02-05 23:54:00,45.2,39.4,30.16,SW,222,0.0,0.0,80,0.00,SCT,,0.00,WeatherDisplay:10.37,2013-02-06 07:54:00,
2013-02-05 23:58:00,45.1,39.3,30.16,SW,222,0.0,0.0,80,0.00,SCT,,0.00,WeatherDisplay:10.37,2013-02-06 07:58:00,
2013-02-05 23:59:00,45.1,39.3,30.16,SW,222,0.0,0.0,80,0.00,SCT,,0.00,WeatherDisplay:10.37,2013-02-06 07:59:00,